Time,TemperatureF,DewpointF,PressureIn,WindDirection,WindDirectionDegrees,WindSpeedMPH,WindSpeedGustMPH,Humidity,HourlyPrecipIn,Conditions,Clouds,dailyrainin,SoftwareType,DateUTC
2013-12-04 00:00:00,56.4,39.0,29.81,SW,231,2.3,2.3,52,0.00,CLR,,0.00,WeatherDisplay:10.37,2013-12-04 07:00:00,
2013-12-04 00:01:00,56.3,38.9,29.81,SSW,213,2.0,2.0,52,0.00,CLR,,0.00,WeatherDisplay:10.37,2013-12-04 07:01:00,
2013-12-04 00:03:00,56.3,39.4,29.81,ESE,109,3.4,3.4,53,0.00,CLR,,0.00,WeatherDisplay:10.37,2013-12-04 07:03:00,
2013-12-04 00:04:00,56.3,39.4,29.81,SW,232,6.9,6.9,53,0.00,CLR,,0.00,WeatherDisplay:10.37,2013-12-04 07:04:00,
2013-12-04 00:05:00,56.4,39.5,29.81,NW,312,6.9,6.9,53,0.00,CLR,,0.00,WeatherDisplay:10.37,2013-12-04 07:05:00,
2013-12-04 00:06:00,56.5,39.6,29.81,NW,307,8.1,8.1,53,0.00,CLR,,0.00,WeatherDisplay:10.37,2013-12-04 07:06:00,
2013-12-04 00:09:00,56.7,39.3,29.81,WSW,244,3.4,3.4,52,0.00,CLR,,0.00,WeatherDisplay:10.37,2013-12-04 07:09:00,
2013-12-04 00:10:00,56.7,39.3,29.81,West,276,2.0,2.0,52,0.00,CLR,,0.00,WeatherDisplay:10.37,2013-12-04 07:10:00,
2013-12-04 00:11:00,56.7,39.3,29.81,West,260,3.4,3.4,52,0.00,CLR,,0.00,WeatherDisplay:10.37,2013-12-04 07:11:00,
2013-12-04 00:13:00,56.7,39.3,29.80,West,277,3.4,3.4,52,0.00,CLR,,0.00,WeatherDisplay:10.37,2013-12-04 07:13:00,
2013-12-04 00:14:00,56.7,39.3,29.81,WSW,255,3.4,3.4,52,0.00,CLR,,0.00,WeatherDisplay:10.37,2013-12-04 07:14:00,
2013-12-04 00:15:00,56.7,39.3,29.81,WSW,256,3.4,3.4,52,0.00,CLR,,0.00,WeatherDisplay:10.37,2013-12-04 07:15:00,
2013-12-04 00:16:00,56.7,39.3,29.81,WSW,256,1.1,0.0,52,0.00,CLR,,0.00,WeatherDisplay:10.37,2013-12-04 07:16:00,
2013-12-04 00:18:00,56.6,39.2,29.81,WSW,249,2.3,2.3,52,0.00,CLR,,0.00,WeatherDisplay:10.37,2013-12-04 07:18:00,
2013-12-04 00:20:00,56.5,39.6,29.80,WNW,282,3.4,3.4,53,0.00,CLR,,0.00,WeatherDisplay:10.37,2013-12-04 07:20:00,
2013-12-04 00:21:00,56.4,39.5,29.80,NNW,336,2.3,2.3,53,0.00,CLR,,0.00,WeatherDisplay:10.37,2013-12-04 07:21:00,
2013-12-04 00:23:00,56.4,39.5,29.80,NW,305,3.4,3.4,53,0.00,CLR,,0.00,WeatherDisplay:10.37,2013-12-04 07:23:00,
2013-12-04 00:25:00,56.3,39.4,29.81,NW,319,3.4,3.4,53,0.00,CLR,,0.00,WeatherDisplay:10.37,2013-12-04 07:25:00,
2013-12-04 00:26:00,56.2,39.3,29.81,WNW,300,1.1,1.1,53,0.00,CLR,,0.00,WeatherDisplay:10.37,2013-12-04 07:26:00,
2013-12-04 00:28:00,56.1,39.2,29.80,NW,315,2.3,2.3,53,0.00,CLR,,0.00,WeatherDisplay:10.37,2013-12-04 07:28:00,
2013-12-04 00:30:00,55.9,39.5,29.80,WNW,290,2.3,2.3,54,0.00,CLR,,0.00,WeatherDisplay:10.37,2013-12-04 07:30:00,
2013-12-04 00:31:00,55.8,39.4,29.80,WNW,290,1.1,0.0,54,0.00,CLR,,0.00,WeatherDisplay:10.37,2013-12-04 07:31:00,
2013-12-04 00:32:00,55.7,39.3,29.80,WNW,290,0.0,0.0,54,0.00,CLR,,0.00,WeatherDisplay:10.37,2013-12-04 07:32:00,
2013-12-04 00:33:00,55.6,39.2,29.80,SW,228,1.1,1.1,54,0.00,CLR,,0.00,WeatherDisplay:10.37,2013-12-04 07:33:00,
2013-12-04 00:35:00,55.5,39.1,29.80,WNW,293,1.1,1.1,54,0.00,CLR,,0.00,WeatherDisplay:10.37,2013-12-04 07:35:00,
2013-12-04 00:36:00,55.4,39.0,29.80,WNW,293,1.1,1.1,54,0.00,CLR,,0.00,WeatherDisplay:10.37,2013-12-04 07:36:00,
2013-12-04 00:37:00,55.4,39.5,29.80,WNW,285,2.3,2.3,55,0.00,CLR,,0.00,WeatherDisplay:10.37,2013-12-04 07:37:00,
2013-12-04 00:39:00,55.4,39.5,29.80,WNW,291,4.0,4.0,55,0.00,CLR,,0.00,WeatherDisplay:10.37,2013-12-04 07:39:00,
2013-12-04 00:40:00,55.5,39.6,29.80,NNW,338,3.0,3.0,55,0.00,CLR,,0.00,WeatherDisplay:10.37,2013-12-04 07:40:00,
2013-12-04 00:41:00,55.4,39.5,29.80,NNW,327,2.3,2.3,55,0.00,CLR,,0.00,WeatherDisplay:10.37,2013-12-04 07:41:00,
2013-12-04 00:43:00,55.4,39.5,29.80,NW,305,3.4,3.4,55,0.00,CLR,,0.00,WeatherDisplay:10.37,2013-12-04 07:43:00,
2013-12-04 00:44:00,55.4,39.5,29.80,West,278,3.4,3.4,55,0.00,CLR,,0.00,WeatherDisplay:10.37,2013-12-04 07:44:00,
2013-12-04 00:46:00,55.4,39.5,29.80,West,273,2.3,2.3,55,0.00,CLR,,0.00,WeatherDisplay:10.37,2013-12-04 07:46:00,
2013-12-04 00:48:00,55.3,39.4,29.80,NW,304,2.3,2.3,55,0.00,CLR,,0.00,WeatherDisplay:10.37,2013-12-04 07:48:00,
2013-12-04 00:49:00,55.2,39.3,29.80,WSW,245,3.4,3.4,55,0.00,CLR,,0.00,WeatherDisplay:10.37,2013-12-04 07:49:00,
2013-12-04 00:51:00,55.1,39.2,29.80,West,277,3.4,3.4,55,0.00,CLR,,0.00,WeatherDisplay:10.37,2013-12-04 07:51:00,
2013-12-04 00:52:00,55.1,39.2,29.80,NW,305,2.3,2.3,55,0.00,CLR,,0.00,WeatherDisplay:10.37,2013-12-04 07:52:00,
2013-12-04 00:53:00,55.1,39.2,29.80,WNW,283,2.3,2.3,55,0.00,CLR,,0.00,WeatherDisplay:10.37,2013-12-04 07:53:00,
2013-12-04 00:55:00,55.0,39.6,29.80,WNW,297,3.4,3.4,56,0.00,CLR,,0.00,WeatherDisplay:10.37,2013-12-04 07:55:00,
2013-12-04 00:56:00,55.0,39.6,29.80,WNW,283,2.3,2.3,56,0.00,CLR,,0.00,WeatherDisplay:10.37,2013-12-04 07:56:00,
2013-12-04 00:57:00,54.9,39.5,29.80,WNW,295,1.1,0.0,56,0.00,CLR,,0.00,WeatherDisplay:10.37,2013-12-04 07:57:00,
2013-12-04 00:58:00,54.9,39.5,29.80,WNW,290,1.1,1.1,56,0.00,CLR,,0.00,WeatherDisplay:10.37,2013-12-04 07:58:00,
2013-12-04 00:59:00,54.9,39.5,29.80,WNW,292,1.1,0.0,56,0.00,CLR,,0.00,WeatherDisplay:10.37,2013-12-04 07:59:00,
2013-12-04 01:00:00,54.8,39.4,29.80,WNW,302,2.3,2.3,56,0.00,CLR,,0.00,WeatherDisplay:10.37,2013-12-04 08:00:00,
2013-12-04 01:01:00,54.7,39.3,29.80,WNW,285,1.1,1.1,56,0.00,CLR,,0.00,WeatherDisplay:10.37,2013-12-04 08:01:00,
2013-12-04 01:02:00,54.7,39.3,29.80,SSE,163,1.1,1.1,56,0.00,CLR,,0.00,WeatherDisplay:10.37,2013-12-04 08:02:00,
2013-12-04 01:03:00,54.6,39.2,29.80,SW,218,1.1,0.0,56,0.00,CLR,,0.00,WeatherDisplay:10.37,2013-12-04 08:03:00,
2013-12-04 01:04:00,54.6,39.2,29.80,WSW,256,1.0,1.0,56,0.00,CLR,,0.00,WeatherDisplay:10.37,2013-12-04 08:04:00,
2013-12-04 01:06:00,54.4,39.5,29.81,West,278,1.1,1.1,57,0.00,CLR,,0.00,WeatherDisplay:10.37,2013-12-04 08:06:00,
2013-12-04 01:07:00,54.3,39.4,29.81,West,278,1.1,0.0,57,0.00,CLR,,0.00,WeatherDisplay:10.37,2013-12-04 08:07:00,
2013-12-04 01:08:00,54.2,39.3,29.81,SW,236,2.3,2.3,57,0.00,CLR,,0.00,WeatherDisplay:10.37,2013-12-04 08:08:00,
2013-12-04 01:09:00,54.2,39.3,29.81,WSW,238,2.3,2.3,57,0.00,CLR,,0.00,WeatherDisplay:10.37,2013-12-04 08:09:00,
2013-12-04 01:10:00,54.1,39.2,29.80,WNW,290,1.1,1.1,57,0.00,CLR,,0.00,WeatherDisplay:10.37,2013-12-04 08:10:00,
2013-12-04 01:11:00,54.0,39.1,29.81,WNW,290,0.0,0.0,57,0.00,CLR,,0.00,WeatherDisplay:10.37,2013-12-04 08:11:00,
2013-12-04 01:13:00,53.9,39.0,29.80,WNW,290,0.0,0.0,57,0.00,CLR,,0.00,WeatherDisplay:10.37,2013-12-04 08:13:00,
2013-12-04 01:14:00,53.8,39.4,29.80,NNW,333,1.0,1.0,58,0.00,CLR,,0.00,WeatherDisplay:10.37,2013-12-04 08:14:00,
2013-12-04 01:16:00,53.7,39.3,29.80,West,271,1.1,1.1,58,0.00,CLR,,0.00,WeatherDisplay:10.37,2013-12-04 08:16:00,
2013-12-04 01:17:00,53.7,39.3,29.80,WNW,284,2.3,2.3,58,0.00,CLR,,0.00,WeatherDisplay:10.37,2013-12-04 08:17:00,
2013-12-04 01:18:00,53.7,39.3,29.80,WNW,284,0.0,0.0,58,0.00,CLR,,0.00,WeatherDisplay:10.37,2013-12-04 08:18:00,
2013-12-04 01:19:00,53.7,39.3,29.80,WNW,284,0.0,0.0,58,0.00,CLR,,0.00,WeatherDisplay:10.37,2013-12-04 08:19:00,
2013-12-04 01:21:00,53.6,39.6,29.81,WNW,283,0.0,0.0,59,0.00,CLR,,0.00,WeatherDisplay:10.37,2013-12-04 08:21:00,
2013-12-04 01:22:00,53.5,39.5,29.80,ENE,70,1.1,1.1,59,0.00,CLR,,0.00,WeatherDisplay:10.37,2013-12-04 08:22:00,
2013-12-04 01:24:00,53.4,39.4,29.81,ENE,70,0.0,0.1,59,0.00,CLR,,0.00,WeatherDisplay:10.37,2013-12-04 08:24:00,
2013-12-04 01:25:00,53.4,39.4,29.81,SSE,158,1.1,1.1,59,0.00,CLR,,0.00,WeatherDisplay:10.37,2013-12-04 08:25:00,
2013-12-04 01:26:00,53.4,39.4,29.81,SSE,150,1.1,1.1,59,0.00,CLR,,0.00,WeatherDisplay:10.37,2013-12-04 08:26:00,
2013-12-04 01:27:00,53.3,39.3,29.80,SSE,150,1.1,0.0,59,0.00,CLR,,0.00,WeatherDisplay:10.37,2013-12-04 08:27:00,
2013-12-04 01:29:00,53.2,39.2,29.80,SSE,149,0.0,0.0,59,0.00,CLR,,0.00,WeatherDisplay:10.37,2013-12-04 08:29:00,
2013-12-04 01:30:00,53.1,39.6,29.81,West,266,1.1,1.1,60,0.00,CLR,,0.00,WeatherDisplay:10.37,2013-12-04 08:30:00,
2013-12-04 01:31:00,53.1,39.6,29.81,West,266,1.1,1.1,60,0.00,CLR,,0.00,WeatherDisplay:10.37,2013-12-04 08:31:00,
2013-12-04 01:32:00,53.0,39.5,29.81,West,264,0.0,0.0,60,0.00,CLR,,0.00,WeatherDisplay:10.37,2013-12-04 08:32:00,
2013-12-04 01:34:00,52.9,39.4,29.81,SSW,205,1.1,0.0,60,0.00,CLR,,0.00,WeatherDisplay:10.37,2013-12-04 08:34:00,
2013-12-04 01:36:00,52.8,39.3,29.81,SSW,201,0.0,0.0,60,0.00,CLR,,0.00,WeatherDisplay:10.37,2013-12-04 08:36:00,
2013-12-04 01:37:00,52.7,39.6,29.81,WSW,255,1.1,1.1,61,0.00,CLR,,0.00,WeatherDisplay:10.37,2013-12-04 08:37:00,
2013-12-04 01:38:00,52.7,39.6,29.81,West,281,2.3,2.3,61,0.00,CLR,,0.00,WeatherDisplay:10.37,2013-12-04 08:38:00,
2013-12-04 01:39:00,52.8,39.7,29.81,West,277,3.4,0.0,61,0.00,CLR,,0.00,WeatherDisplay:10.37,2013-12-04 08:39:00,
2013-12-04 01:41:00,52.9,39.8,29.81,WSW,240,2.3,2.3,61,0.00,CLR,,0.00,WeatherDisplay:10.37,2013-12-04 08:41:00,
2013-12-04 01:42:00,53.0,39.9,29.81,SW,215,3.4,3.4,61,0.00,CLR,,0.00,WeatherDisplay:10.37,2013-12-04 08:42:00,
2013-12-04 01:43:00,53.1,40.0,29.81,SW,214,3.4,3.4,61,0.00,CLR,,0.00,WeatherDisplay:10.37,2013-12-04 08:43:00,
2013-12-04 01:44:00,53.1,39.6,29.81,SSW,213,0.0,0.0,60,0.00,CLR,,0.00,WeatherDisplay:10.37,2013-12-04 08:44:00,
2013-12-04 01:46:00,53.1,39.6,29.81,West,278,1.1,1.1,60,0.00,CLR,,0.00,WeatherDisplay:10.37,2013-12-04 08:46:00,
2013-12-04 01:47:00,53.1,39.6,29.81,West,262,0.0,0.0,60,0.00,CLR,,0.00,WeatherDisplay:10.37,2013-12-04 08:47:00,
2013-12-04 01:48:00,53.1,39.6,29.81,West,262,0.0,0.0,60,0.00,CLR,,0.00,WeatherDisplay:10.37,2013-12-04 08:48:00,
2013-12-04 01:49:00,53.1,39.6,29.81,WSW,248,0.0,0.0,60,0.00,CLR,,0.00,WeatherDisplay:10.37,2013-12-04 08:49:00,
2013-12-04 01:50:00,53.1,40.0,29.81,ESE,118,4.0,4.0,61,0.00,CLR,,0.00,WeatherDisplay:10.37,2013-12-04 08:50:00,
2013-12-04 01:51:00,53.2,40.1,29.80,SW,221,3.4,3.4,61,0.00,CLR,,0.00,WeatherDisplay:10.37,2013-12-04 08:51:00,
2013-12-04 01:53:00,53.2,40.1,29.80,East,96,3.4,3.4,61,0.00,CLR,,0.00,WeatherDisplay:10.37,2013-12-04 08:53:00,
2013-12-04 01:54:00,53.2,40.1,29.80,SSW,212,1.1,1.1,61,0.00,CLR,,0.00,WeatherDisplay:10.37,2013-12-04 08:54:00,
2013-12-04 01:55:00,53.2,40.1,29.80,SSW,208,1.1,1.1,61,0.00,CLR,,0.00,WeatherDisplay:10.37,2013-12-04 08:55:00,
2013-12-04 01:56:00,53.2,40.1,29.80,WSW,245,1.0,0.0,61,0.00,CLR,,0.00,WeatherDisplay:10.37,2013-12-04 08:56:00,
2013-12-04 01:58:00,53.3,40.2,29.80,West,264,4.6,4.6,61,0.00,CLR,,0.00,WeatherDisplay:10.37,2013-12-04 08:58:00,
2013-12-04 01:59:00,53.4,40.3,29.80,SW,226,3.4,0.0,61,0.00,CLR,,0.00,WeatherDisplay:10.37,2013-12-04 08:59:00,
2013-12-04 02:00:00,53.4,40.3,29.80,SW,221,0.0,0.1,61,0.00,CLR,,0.00,WeatherDisplay:10.37,2013-12-04 09:00:00,
2013-12-04 02:01:00,53.4,40.3,29.80,SW,222,1.1,1.1,61,0.00,CLR,,0.00,WeatherDisplay:10.37,2013-12-04 09:01:00,
2013-12-04 02:03:00,53.3,40.2,29.80,SSW,212,2.3,2.3,61,0.00,CLR,,0.00,WeatherDisplay:10.37,2013-12-04 09:03:00,
2013-12-04 02:04:00,53.3,40.2,29.80,SSW,211,3.4,3.4,61,0.00,CLR,,0.00,WeatherDisplay:10.37,2013-12-04 09:04:00,
2013-12-04 02:05:00,53.3,40.2,29.80,SW,228,2.3,2.3,61,0.00,CLR,,0.00,WeatherDisplay:10.37,2013-12-04 09:05:00,
2013-12-04 02:06:00,53.3,40.2,29.80,South,181,1.1,1.1,61,0.00,CLR,,0.00,WeatherDisplay:10.37,2013-12-04 09:06:00,
2013-12-04 02:08:00,53.3,40.2,29.80,SW,236,2.3,2.3,61,0.00,CLR,,0.00,WeatherDisplay:10.37,2013-12-04 09:08:00,
2013-12-04 02:09:00,53.3,40.2,29.80,SSW,210,0.0,0.3,61,0.00,CLR,,0.00,WeatherDisplay:10.37,2013-12-04 09:09:00,
2013-12-04 02:10:00,53.3,40.2,29.80,WSW,242,1.1,1.1,61,0.00,CLR,,0.00,WeatherDisplay:10.37,2013-12-04 09:10:00,
2013-12-04 02:12:00,53.3,40.2,29.80,SW,236,3.4,3.4,61,0.00,CLR,,0.00,WeatherDisplay:10.37,2013-12-04 09:12:00,
2013-12-04 02:13:00,53.4,40.3,29.80,SW,231,3.4,3.4,61,0.00,CLR,,0.00,WeatherDisplay:10.37,2013-12-04 09:13:00,
2013-12-04 02:14:00,53.4,40.3,29.80,WSW,239,2.3,2.3,61,0.00,CLR,,0.00,WeatherDisplay:10.37,2013-12-04 09:14:00,
2013-12-04 02:15:00,53.4,40.3,29.80,SW,225,2.3,2.3,61,0.00,CLR,,0.00,WeatherDisplay:10.37,2013-12-04 09:15:00,
2013-12-04 02:16:00,53.5,40.4,29.80,SSW,212,3.0,3.0,61,0.00,CLR,,0.00,WeatherDisplay:10.37,2013-12-04 09:16:00,
2013-12-04 02:17:00,53.6,40.5,29.79,SSW,210,3.4,3.4,61,0.00,CLR,,0.00,WeatherDisplay:10.37,2013-12-04 09:17:00,
2013-12-04 02:18:00,53.6,40.5,29.80,SSW,207,2.0,2.0,61,0.00,CLR,,0.00,WeatherDisplay:10.37,2013-12-04 09:18:00,
2013-12-04 02:20:00,53.6,40.5,29.80,SSW,212,2.0,2.0,61,0.00,CLR,,0.00,WeatherDisplay:10.37,2013-12-04 09:20:00,
2013-12-04 02:21:00,53.7,40.6,29.80,SW,218,2.3,2.3,61,0.00,CLR,,0.00,WeatherDisplay:10.37,2013-12-04 09:21:00,
2013-12-04 02:22:00,53.7,40.6,29.80,SW,229,1.1,1.1,61,0.00,CLR,,0.00,WeatherDisplay:10.37,2013-12-04 09:22:00,
2013-12-04 02:23:00,53.7,40.6,29.80,SW,229,1.1,0.0,61,0.00,CLR,,0.00,WeatherDisplay:10.37,2013-12-04 09:23:00,
2013-12-04 02:25:00,53.7,40.6,29.80,SW,218,3.4,3.4,61,0.00,CLR,,0.00,WeatherDisplay:10.37,2013-12-04 09:25:00,
2013-12-04 02:26:00,53.6,40.5,29.80,SW,218,1.1,1.1,61,0.00,CLR,,0.00,WeatherDisplay:10.37,2013-12-04 09:26:00,
2013-12-04 02:27:00,53.6,40.5,29.80,SW,218,0.0,0.0,61,0.00,CLR,,0.00,WeatherDisplay:10.37,2013-12-04 09:27:00,
2013-12-04 02:28:00,53.6,40.5,29.80,SW,215,1.0,1.0,61,0.00,CLR,,0.00,WeatherDisplay:10.37,2013-12-04 09:28:00,
2013-12-04 02:30:00,53.4,40.3,29.80,SSW,207,3.4,3.4,61,0.00,CLR,,0.00,WeatherDisplay:10.37,2013-12-04 09:30:00,
2013-12-04 02:31:00,53.5,40.4,29.80,SSW,198,3.4,3.4,61,0.00,CLR,,0.00,WeatherDisplay:10.37,2013-12-04 09:31:00,
2013-12-04 02:32:00,53.5,40.4,29.80,SW,225,2.3,2.3,61,0.00,CLR,,0.00,WeatherDisplay:10.37,2013-12-04 09:32:00,
2013-12-04 02:33:00,53.6,40.5,29.80,SW,217,2.3,2.3,61,0.00,CLR,,0.00,WeatherDisplay:10.37,2013-12-04 09:33:00,
2013-12-04 02:35:00,53.6,40.5,29.80,WSW,242,1.1,1.1,61,0.00,CLR,,0.00,WeatherDisplay:10.37,2013-12-04 09:35:00,
2013-12-04 02:36:00,53.6,40.5,29.80,WSW,242,1.1,1.1,61,0.00,CLR,,0.00,WeatherDisplay:10.37,2013-12-04 09:36:00,
2013-12-04 02:37:00,53.5,40.4,29.80,SW,224,1.1,0.0,61,0.00,CLR,,0.00,WeatherDisplay:10.37,2013-12-04 09:37:00,
2013-12-04 02:38:00,53.5,40.4,29.80,SW,224,0.0,0.0,61,0.00,CLR,,0.00,WeatherDisplay:10.37,2013-12-04 09:38:00,
2013-12-04 02:41:00,53.3,40.2,29.80,SW,225,0.0,0.0,61,0.00,CLR,,0.00,WeatherDisplay:10.37,2013-12-04 09:41:00,
2013-12-04 02:42:00,53.2,40.5,29.80,WSW,242,1.1,1.1,62,0.00,CLR,,0.00,WeatherDisplay:10.37,2013-12-04 09:42:00,
2013-12-04 02:43:00,53.2,40.5,29.80,WSW,242,0.0,0.0,62,0.00,CLR,,0.00,WeatherDisplay:10.37,2013-12-04 09:43:00,
2013-12-04 02:44:00,53.2,40.5,29.80,WSW,242,0.0,0.0,62,0.00,CLR,,0.00,WeatherDisplay:10.37,2013-12-04 09:44:00,
2013-12-04 02:46:00,53.1,40.4,29.80,West,271,3.4,3.4,62,0.00,CLR,,0.00,WeatherDisplay:10.37,2013-12-04 09:46:00,
2013-12-04 02:47:00,53.0,40.3,29.80,West,271,0.0,0.1,62,0.00,CLR,,0.00,WeatherDisplay:10.37,2013-12-04 09:47:00,
2013-12-04 02:48:00,53.0,40.3,29.80,West,271,0.0,0.0,62,0.00,CLR,,0.00,WeatherDisplay:10.37,2013-12-04 09:48:00,
2013-12-04 02:49:00,53.0,40.3,29.80,SSE,158,1.0,1.0,62,0.00,CLR,,0.00,WeatherDisplay:10.37,2013-12-04 09:49:00,
2013-12-04 02:51:00,52.8,40.1,29.80,SSE,158,0.0,0.0,62,0.00,CLR,,0.00,WeatherDisplay:10.37,2013-12-04 09:51:00,
2013-12-04 02:52:00,52.8,40.1,29.80,SSE,158,0.0,0.0,62,0.00,CLR,,0.00,WeatherDisplay:10.37,2013-12-04 09:52:00,
2013-12-04 02:54:00,52.7,40.5,29.80,SE,142,1.1,0.0,63,0.00,CLR,,0.00,WeatherDisplay:10.37,2013-12-04 09:54:00,
2013-12-04 02:55:00,52.7,40.5,29.80,SE,128,1.1,1.1,63,0.00,CLR,,0.00,WeatherDisplay:10.37,2013-12-04 09:55:00,
2013-12-04 02:56:00,52.6,40.4,29.80,SE,128,0.0,0.0,63,0.00,CLR,,0.00,WeatherDisplay:10.37,2013-12-04 09:56:00,
2013-12-04 02:57:00,52.2,40.0,29.80,SE,128,0.0,0.0,63,0.00,CLR,,0.00,WeatherDisplay:10.37,2013-12-04 09:57:00,
2013-12-04 02:59:00,52.4,40.2,29.80,SE,128,1.1,0.0,63,0.00,CLR,,0.00,WeatherDisplay:10.37,2013-12-04 09:59:00,
2013-12-04 03:00:00,52.3,40.1,29.80,SE,128,0.0,0.5,63,0.00,CLR,,0.00,WeatherDisplay:10.37,2013-12-04 10:00:00,
2013-12-04 03:01:00,52.3,40.1,29.80,ESE,103,1.1,1.1,63,0.00,CLR,,0.00,WeatherDisplay:10.37,2013-12-04 10:01:00,
2013-12-04 03:02:00,52.3,40.5,29.80,NE,52,1.1,1.1,64,0.00,CLR,,0.00,WeatherDisplay:10.37,2013-12-04 10:02:00,
2013-12-04 03:03:00,52.3,40.5,29.80,ENE,70,2.0,2.0,64,0.00,CLR,,0.00,WeatherDisplay:10.37,2013-12-04 10:03:00,
2013-12-04 03:04:00,52.3,40.1,29.80,East,86,2.3,2.3,63,0.00,CLR,,0.00,WeatherDisplay:10.37,2013-12-04 10:04:00,
2013-12-04 03:05:00,52.3,40.5,29.80,East,86,0.0,0.0,64,0.00,CLR,,0.00,WeatherDisplay:10.37,2013-12-04 10:05:00,
2013-12-04 03:06:00,52.2,40.4,29.80,East,86,0.0,0.0,64,0.00,CLR,,0.00,WeatherDisplay:10.37,2013-12-04 10:06:00,
2013-12-04 03:07:00,52.2,40.0,29.80,East,86,0.0,0.0,63,0.00,CLR,,0.00,WeatherDisplay:10.37,2013-12-04 10:07:00,
2013-12-04 03:08:00,52.1,40.3,29.80,East,91,1.1,0.0,64,0.00,CLR,,0.00,WeatherDisplay:10.37,2013-12-04 10:08:00,
2013-12-04 03:09:00,52.0,40.2,29.80,East,101,1.1,1.1,64,0.00,CLR,,0.00,WeatherDisplay:10.37,2013-12-04 10:09:00,
2013-12-04 03:10:00,52.0,40.2,29.80,East,101,1.1,0.0,64,0.00,CLR,,0.00,WeatherDisplay:10.37,2013-12-04 10:10:00,
2013-12-04 03:11:00,51.9,40.1,29.80,East,101,0.0,0.0,64,0.00,CLR,,0.00,WeatherDisplay:10.37,2013-12-04 10:11:00,
2013-12-04 03:12:00,51.8,40.0,29.80,East,101,1.1,1.1,64,0.00,CLR,,0.00,WeatherDisplay:10.37,2013-12-04 10:12:00,
2013-12-04 03:13:00,51.8,40.0,29.80,East,98,1.1,1.1,64,0.00,CLR,,0.00,WeatherDisplay:10.37,2013-12-04 10:13:00,
2013-12-04 03:14:00,51.7,39.9,29.80,ENE,65,2.3,2.3,64,0.00,CLR,,0.00,WeatherDisplay:10.37,2013-12-04 10:14:00,
2013-12-04 03:15:00,51.8,40.4,29.80,ENE,66,1.1,1.1,65,0.00,CLR,,0.00,WeatherDisplay:10.37,2013-12-04 10:15:00,
2013-12-04 03:16:00,51.8,40.4,29.80,ENE,65,1.1,1.1,65,0.00,CLR,,0.00,WeatherDisplay:10.37,2013-12-04 10:16:00,
2013-12-04 03:17:00,51.8,40.4,29.80,ENE,67,2.3,2.3,65,0.00,CLR,,0.00,WeatherDisplay:10.37,2013-12-04 10:17:00,
2013-12-04 03:18:00,51.9,40.5,29.80,ENE,66,2.3,2.3,65,0.00,CLR,,0.00,WeatherDisplay:10.37,2013-12-04 10:18:00,
2013-12-04 03:19:00,52.0,40.2,29.80,ENE,70,1.1,1.1,64,0.00,CLR,,0.00,WeatherDisplay:10.37,2013-12-04 10:19:00,
2013-12-04 03:20:00,52.0,40.2,29.80,ENE,65,2.3,2.3,64,0.00,CLR,,0.00,WeatherDisplay:10.37,2013-12-04 10:20:00,
2013-12-04 03:21:00,52.0,40.2,29.80,ENE,61,2.3,2.3,64,0.00,CLR,,0.00,WeatherDisplay:10.37,2013-12-04 10:21:00,
2013-12-04 03:23:00,52.0,40.2,29.80,NE,37,2.3,2.3,64,0.00,CLR,,0.00,WeatherDisplay:10.37,2013-12-04 10:23:00,
2013-12-04 03:24:00,51.9,40.1,29.80,NE,51,2.3,2.3,64,0.00,CLR,,0.00,WeatherDisplay:10.37,2013-12-04 10:24:00,
2013-12-04 03:26:00,51.8,40.0,29.80,NE,46,1.1,1.1,64,0.00,CLR,,0.00,WeatherDisplay:10.37,2013-12-04 10:26:00,
2013-12-04 03:28:00,51.7,40.3,29.80,ENE,63,2.3,2.3,65,0.00,CLR,,0.00,WeatherDisplay:10.37,2013-12-04 10:28:00,
2013-12-04 03:29:00,51.7,40.3,29.80,NE,48,2.3,2.3,65,0.00,CLR,,0.00,WeatherDisplay:10.37,2013-12-04 10:29:00,
2013-12-04 03:31:00,51.6,40.2,29.80,NE,53,1.1,0.0,65,0.00,CLR,,0.00,WeatherDisplay:10.37,2013-12-04 10:31:00,
2013-12-04 03:33:00,51.6,40.2,29.80,ENE,65,2.3,2.3,65,0.00,CLR,,0.00,WeatherDisplay:10.37,2013-12-04 10:33:00,
2013-12-04 03:34:00,51.7,40.3,29.80,East,89,2.3,2.3,65,0.00,CLR,,0.00,WeatherDisplay:10.37,2013-12-04 10:34:00,
2013-12-04 03:35:00,51.7,40.3,29.80,East,89,1.1,1.1,65,0.00,CLR,,0.00,WeatherDisplay:10.37,2013-12-04 10:35:00,
2013-12-04 03:36:00,51.7,40.3,29.80,East,89,0.0,0.0,65,0.00,CLR,,0.00,WeatherDisplay:10.37,2013-12-04 10:36:00,
2013-12-04 03:38:00,51.6,40.2,29.80,East,85,2.0,2.0,65,0.00,CLR,,0.00,WeatherDisplay:10.37,2013-12-04 10:38:00,
2013-12-04 03:39:00,51.6,40.2,29.80,NE,46,2.3,2.3,65,0.00,CLR,,0.00,WeatherDisplay:10.37,2013-12-04 10:39:00,
2013-12-04 03:40:00,51.6,40.2,29.80,NE,46,2.3,0.0,65,0.00,CLR,,0.00,WeatherDisplay:10.37,2013-12-04 10:40:00,
2013-12-04 03:42:00,51.6,40.2,29.80,NE,47,0.0,0.0,65,0.00,CLR,,0.00,WeatherDisplay:10.37,2013-12-04 10:42:00,
2013-12-04 03:43:00,51.6,40.2,29.80,ENE,77,1.1,1.1,65,0.00,CLR,,0.00,WeatherDisplay:10.37,2013-12-04 10:43:00,
2013-12-04 03:44:00,51.6,40.2,29.80,ENE,77,1.1,1.1,65,0.00,CLR,,0.00,WeatherDisplay:10.37,2013-12-04 10:44:00,
2013-12-04 03:46:00,51.6,40.2,29.79,ENE,78,0.0,0.0,65,0.00,CLR,,0.00,WeatherDisplay:10.37,2013-12-04 10:46:00,
2013-12-04 03:47:00,51.6,40.2,29.79,SE,128,0.0,0.0,65,0.00,CLR,,0.00,WeatherDisplay:10.37,2013-12-04 10:47:00,
2013-12-04 03:48:00,51.6,40.2,29.79,East,82,2.3,2.3,65,0.00,CLR,,0.00,WeatherDisplay:10.37,2013-12-04 10:48:00,
2013-12-04 03:49:00,51.7,40.3,29.79,ENE,75,2.3,2.3,65,0.00,CLR,,0.00,WeatherDisplay:10.37,2013-12-04 10:49:00,
2013-12-04 03:51:00,51.8,40.4,29.79,ENE,75,0.0,0.0,65,0.00,CLR,,0.00,WeatherDisplay:10.37,2013-12-04 10:51:00,
2013-12-04 03:52:00,51.9,40.5,29.79,ENE,75,0.0,0.0,65,0.00,CLR,,0.00,WeatherDisplay:10.37,2013-12-04 10:52:00,
2013-12-04 03:54:00,52.0,40.6,29.79,ENE,75,0.0,0.0,65,0.00,CLR,,0.00,WeatherDisplay:10.37,2013-12-04 10:54:00,
2013-12-04 03:56:00,52.0,40.6,29.80,ENE,77,1.1,1.1,65,0.00,CLR,,0.00,WeatherDisplay:10.37,2013-12-04 10:56:00,
2013-12-04 03:57:00,52.0,40.6,29.80,ENE,77,1.1,1.1,65,0.00,CLR,,0.00,WeatherDisplay:10.37,2013-12-04 10:57:00,
2013-12-04 03:59:00,52.1,40.7,29.79,ENE,77,2.3,2.3,65,0.00,CLR,,0.00,WeatherDisplay:10.37,2013-12-04 10:59:00,
2013-12-04 04:02:00,52.3,40.9,29.79,WSW,247,1.1,1.1,65,0.00,CLR,,0.00,WeatherDisplay:10.37,2013-12-04 11:02:00,
2013-12-04 04:04:00,52.3,40.5,29.79,NW,304,0.0,0.0,64,0.00,CLR,,0.00,WeatherDisplay:10.37,2013-12-04 11:04:00,
2013-12-04 04:05:00,52.3,40.9,29.79,North,355,1.0,1.0,65,0.00,CLR,,0.00,WeatherDisplay:10.37,2013-12-04 11:05:00,
2013-12-04 04:07:00,52.4,41.0,29.80,West,260,1.1,0.0,65,0.00,CLR,,0.00,WeatherDisplay:10.37,2013-12-04 11:07:00,
2013-12-04 04:08:00,52.3,40.9,29.80,West,262,0.0,0.0,65,0.00,CLR,,0.00,WeatherDisplay:10.37,2013-12-04 11:08:00,
2013-12-04 04:09:00,52.3,40.9,29.80,SE,133,1.1,0.0,65,0.00,CLR,,0.00,WeatherDisplay:10.37,2013-12-04 11:09:00,
2013-12-04 04:10:00,52.3,40.9,29.80,SSW,193,1.1,0.0,65,0.00,CLR,,0.00,WeatherDisplay:10.37,2013-12-04 11:10:00,
2013-12-04 04:12:00,52.6,41.2,29.80,West,271,3.4,3.4,65,0.00,CLR,,0.00,WeatherDisplay:10.37,2013-12-04 11:12:00,
2013-12-04 04:13:00,52.8,41.4,29.80,West,264,5.0,5.0,65,0.00,CLR,,0.00,WeatherDisplay:10.37,2013-12-04 11:13:00,
2013-12-04 04:14:00,53.1,41.6,29.80,WSW,250,2.3,2.3,65,0.00,CLR,,0.00,WeatherDisplay:10.37,2013-12-04 11:14:00,
2013-12-04 04:15:00,53.3,41.8,29.80,SW,226,4.0,4.0,65,0.00,CLR,,0.00,WeatherDisplay:10.37,2013-12-04 11:15:00,
2013-12-04 04:16:00,53.5,41.6,29.79,SE,138,8.1,8.1,64,0.00,CLR,,0.00,WeatherDisplay:10.37,2013-12-04 11:16:00,
2013-12-04 04:17:00,53.7,41.8,29.80,NW,317,2.3,2.3,64,0.00,CLR,,0.00,WeatherDisplay:10.37,2013-12-04 11:17:00,
2013-12-04 04:18:00,53.8,41.5,29.80,WSW,248,2.3,2.3,63,0.00,CLR,,0.00,WeatherDisplay:10.37,2013-12-04 11:18:00,
2013-12-04 04:20:00,53.9,41.6,29.80,West,260,1.1,1.1,63,0.00,CLR,,0.00,WeatherDisplay:10.37,2013-12-04 11:20:00,
2013-12-04 04:21:00,53.9,41.6,29.79,SW,229,1.1,1.1,63,0.00,CLR,,0.00,WeatherDisplay:10.37,2013-12-04 11:21:00,
2013-12-04 04:22:00,53.9,41.6,29.79,West,281,1.1,1.1,63,0.00,CLR,,0.00,WeatherDisplay:10.37,2013-12-04 11:22:00,
2013-12-04 04:23:00,53.8,41.5,29.79,East,101,2.0,2.0,63,0.00,CLR,,0.00,WeatherDisplay:10.37,2013-12-04 11:23:00,
2013-12-04 04:24:00,53.8,41.5,29.79,SW,225,3.4,3.4,63,0.00,CLR,,0.00,WeatherDisplay:10.37,2013-12-04 11:24:00,
2013-12-04 04:25:00,53.8,41.5,29.79,SW,225,2.3,2.3,63,0.00,CLR,,0.00,WeatherDisplay:10.37,2013-12-04 11:25:00,
2013-12-04 04:26:00,53.8,41.5,29.79,SW,224,0.0,0.0,63,0.00,CLR,,0.00,WeatherDisplay:10.37,2013-12-04 11:26:00,
2013-12-04 04:27:00,53.8,41.5,29.79,WSW,243,2.3,2.3,63,0.00,CLR,,0.00,WeatherDisplay:10.37,2013-12-04 11:27:00,
2013-12-04 04:28:00,53.8,41.5,29.79,WSW,243,2.3,0.0,63,0.00,CLR,,0.00,WeatherDisplay:10.37,2013-12-04 11:28:00,
2013-12-04 04:29:00,53.7,41.4,29.79,WSW,246,0.0,3.0,63,0.00,CLR,,0.00,WeatherDisplay:10.37,2013-12-04 11:29:00,
2013-12-04 04:30:00,53.7,41.4,29.79,SSW,210,2.0,2.0,63,0.00,CLR,,0.00,WeatherDisplay:10.37,2013-12-04 11:30:00,
2013-12-04 04:31:00,53.6,41.3,29.79,SW,224,3.4,3.4,63,0.00,CLR,,0.00,WeatherDisplay:10.37,2013-12-04 11:31:00,
2013-12-04 04:33:00,53.6,41.7,29.79,SW,223,1.1,0.0,64,0.00,CLR,,0.00,WeatherDisplay:10.37,2013-12-04 11:33:00,
2013-12-04 04:34:00,53.5,41.6,29.79,SW,224,0.0,0.0,64,0.00,CLR,,0.00,WeatherDisplay:10.37,2013-12-04 11:34:00,
2013-12-04 04:35:00,53.5,41.6,29.79,SW,222,0.0,0.0,64,0.00,CLR,,0.00,WeatherDisplay:10.37,2013-12-04 11:35:00,
2013-12-04 04:36:00,53.4,41.5,29.79,SSW,208,1.1,1.1,64,0.00,CLR,,0.00,WeatherDisplay:10.37,2013-12-04 11:36:00,
2013-12-04 04:38:00,53.3,41.4,29.79,SW,217,1.1,1.1,64,0.00,CLR,,0.00,WeatherDisplay:10.37,2013-12-04 11:38:00,
2013-12-04 04:39:00,53.2,41.4,29.79,SW,219,0.0,3.0,64,0.00,CLR,,0.00,WeatherDisplay:10.37,2013-12-04 11:39:00,
2013-12-04 04:40:00,53.1,41.6,29.79,SW,232,3.4,3.4,65,0.00,CLR,,0.00,WeatherDisplay:10.37,2013-12-04 11:40:00,
2013-12-04 04:41:00,53.1,41.6,29.79,SW,232,3.4,3.4,65,0.00,CLR,,0.00,WeatherDisplay:10.37,2013-12-04 11:41:00,
2013-12-04 04:43:00,53.0,41.5,29.79,SW,235,0.0,0.0,65,0.00,CLR,,0.00,WeatherDisplay:10.37,2013-12-04 11:43:00,
2013-12-04 04:44:00,53.0,41.5,29.79,West,267,1.1,1.1,65,0.00,CLR,,0.00,WeatherDisplay:10.37,2013-12-04 11:44:00,
2013-12-04 04:46:00,53.0,41.5,29.79,SSW,193,2.3,2.3,65,0.00,CLR,,0.00,WeatherDisplay:10.37,2013-12-04 11:46:00,
2013-12-04 04:47:00,52.9,41.4,29.79,SSW,193,0.0,0.0,65,0.00,CLR,,0.00,WeatherDisplay:10.37,2013-12-04 11:47:00,
2013-12-04 04:49:00,52.8,41.7,29.79,SSW,212,1.1,0.0,66,0.00,CLR,,0.00,WeatherDisplay:10.37,2013-12-04 11:49:00,
2013-12-04 04:51:00,52.7,41.7,29.79,SSW,212,0.0,0.0,66,0.00,CLR,,0.00,WeatherDisplay:10.37,2013-12-04 11:51:00,
2013-12-04 04:52:00,52.6,41.6,29.79,NNE,25,1.1,1.1,66,0.00,CLR,,0.00,WeatherDisplay:10.37,2013-12-04 11:52:00,
2013-12-04 04:55:00,52.6,41.6,29.79,NW,305,1.1,0.0,66,0.00,CLR,,0.00,WeatherDisplay:10.37,2013-12-04 11:55:00,
2013-12-04 04:56:00,52.6,41.9,29.79,WSW,255,3.4,3.4,67,0.00,CLR,,0.00,WeatherDisplay:10.37,2013-12-04 11:56:00,
2013-12-04 04:57:00,52.6,41.9,29.79,WSW,253,4.6,4.6,67,0.00,CLR,,0.00,WeatherDisplay:10.37,2013-12-04 11:57:00,
2013-12-04 05:00:00,52.6,41.6,29.79,SW,233,1.1,1.1,66,0.00,CLR,,0.00,WeatherDisplay:10.37,2013-12-04 12:00:00,
2013-12-04 05:01:00,52.6,41.6,29.79,SW,233,1.1,1.1,66,0.00,CLR,,0.00,WeatherDisplay:10.37,2013-12-04 12:01:00,
2013-12-04 05:02:00,52.2,41.2,29.79,SW,233,0.0,0.0,66,0.00,CLR,,0.00,WeatherDisplay:10.37,2013-12-04 12:02:00,
2013-12-04 05:05:00,52.4,41.8,29.79,SW,219,0.0,0.0,67,0.00,CLR,,0.00,WeatherDisplay:10.37,2013-12-04 12:05:00,
2013-12-04 05:06:00,52.4,41.8,29.79,SW,219,0.0,0.0,67,0.00,CLR,,0.00,WeatherDisplay:10.37,2013-12-04 12:06:00,
2013-12-04 05:07:00,52.4,41.8,29.79,SW,218,0.0,0.0,67,0.00,CLR,,0.00,WeatherDisplay:10.37,2013-12-04 12:07:00,
2013-12-04 05:10:00,52.1,41.5,29.79,SW,218,0.0,0.0,67,0.00,CLR,,0.00,WeatherDisplay:10.37,2013-12-04 12:10:00,
2013-12-04 05:11:00,52.1,41.5,29.79,SW,218,0.0,0.0,67,0.00,CLR,,0.00,WeatherDisplay:10.37,2013-12-04 12:11:00,
2013-12-04 05:12:00,52.1,41.9,29.79,SW,218,0.0,0.0,68,0.00,CLR,,0.00,WeatherDisplay:10.37,2013-12-04 12:12:00,
2013-12-04 05:14:00,52.1,41.9,29.79,North,10,0.0,0.0,68,0.00,CLR,,0.00,WeatherDisplay:10.37,2013-12-04 12:14:00,
2013-12-04 05:16:00,52.0,41.8,29.79,NW,322,0.0,0.0,68,0.00,CLR,,0.00,WeatherDisplay:10.37,2013-12-04 12:16:00,
2013-12-04 05:17:00,52.0,41.8,29.79,North,354,1.1,1.1,68,0.00,CLR,,0.00,WeatherDisplay:10.37,2013-12-04 12:17:00,
2013-12-04 05:19:00,52.0,41.8,29.79,WNW,293,1.1,1.1,68,0.00,CLR,,0.00,WeatherDisplay:10.37,2013-12-04 12:19:00,
2013-12-04 05:21:00,52.1,41.9,29.79,NNW,342,1.1,1.1,68,0.00,CLR,,0.00,WeatherDisplay:10.37,2013-12-04 12:21:00,
2013-12-04 05:22:00,52.2,42.0,29.79,SSW,212,1.1,1.1,68,0.00,CLR,,0.00,WeatherDisplay:10.37,2013-12-04 12:22:00,
2013-12-04 05:23:00,52.3,42.0,29.79,WNW,295,3.4,3.4,68,0.00,CLR,,0.00,WeatherDisplay:10.37,2013-12-04 12:23:00,
2013-12-04 05:25:00,52.6,42.3,29.79,NW,305,3.4,3.4,68,0.00,CLR,,0.00,WeatherDisplay:10.37,2013-12-04 12:25:00,
2013-12-04 05:26:00,52.8,42.5,29.79,West,281,3.4,3.4,68,0.00,CLR,,0.00,WeatherDisplay:10.37,2013-12-04 12:26:00,
2013-12-04 05:27:00,52.9,42.6,29.79,West,266,4.6,4.6,68,0.00,CLR,,0.00,WeatherDisplay:10.37,2013-12-04 12:27:00,
2013-12-04 05:28:00,53.1,42.4,29.79,West,262,3.4,3.4,67,0.00,CLR,,0.00,WeatherDisplay:10.37,2013-12-04 12:28:00,
2013-12-04 05:30:00,53.2,42.5,29.79,WNW,283,1.1,0.0,67,0.00,CLR,,0.00,WeatherDisplay:10.37,2013-12-04 12:30:00,
2013-12-04 05:31:00,53.2,42.5,29.79,WNW,295,2.3,2.3,67,0.00,CLR,,0.00,WeatherDisplay:10.37,2013-12-04 12:31:00,
2013-12-04 05:32:00,53.2,42.5,29.79,WNW,298,2.3,2.3,67,0.00,CLR,,0.00,WeatherDisplay:10.37,2013-12-04 12:32:00,
2013-12-04 05:33:00,53.2,42.1,29.80,WNW,293,1.1,1.1,66,0.00,CLR,,0.00,WeatherDisplay:10.37,2013-12-04 12:33:00,
2013-12-04 05:35:00,53.2,42.5,29.80,WSW,245,1.1,1.1,67,0.00,CLR,,0.00,WeatherDisplay:10.37,2013-12-04 12:35:00,
2013-12-04 05:36:00,53.2,42.5,29.80,WSW,243,3.4,3.4,67,0.00,CLR,,0.00,WeatherDisplay:10.37,2013-12-04 12:36:00,
2013-12-04 05:37:00,53.2,42.5,29.80,WSW,243,3.4,3.4,67,0.00,CLR,,0.00,WeatherDisplay:10.37,2013-12-04 12:37:00,
2013-12-04 05:39:00,53.2,42.5,29.80,WNW,283,2.3,2.3,67,0.00,CLR,,0.00,WeatherDisplay:10.37,2013-12-04 12:39:00,
2013-12-04 05:40:00,53.2,42.5,29.80,SW,229,2.3,2.3,67,0.00,CLR,,0.00,WeatherDisplay:10.37,2013-12-04 12:40:00,
2013-12-04 05:42:00,53.1,42.8,29.80,WSW,254,2.3,2.3,68,0.00,CLR,,0.00,WeatherDisplay:10.37,2013-12-04 12:42:00,
2013-12-04 05:44:00,53.3,43.0,29.80,WNW,291,3.4,3.4,68,0.00,CLR,,0.00,WeatherDisplay:10.37,2013-12-04 12:44:00,
2013-12-04 05:46:00,53.4,42.7,29.80,WSW,250,2.3,2.3,67,0.00,CLR,,0.00,WeatherDisplay:10.37,2013-12-04 12:46:00,
2013-12-04 05:47:00,53.5,43.2,29.80,NW,322,2.3,2.3,68,0.00,CLR,,0.00,WeatherDisplay:10.37,2013-12-04 12:47:00,
2013-12-04 05:48:00,53.5,42.8,29.80,WSW,243,3.4,3.4,67,0.00,CLR,,0.00,WeatherDisplay:10.37,2013-12-04 12:48:00,
2013-12-04 05:49:00,53.5,42.8,29.81,West,279,2.3,2.3,67,0.00,CLR,,0.00,WeatherDisplay:10.37,2013-12-04 12:49:00,
2013-12-04 05:51:00,53.6,42.9,29.81,SSW,211,1.1,1.1,67,0.00,CLR,,0.00,WeatherDisplay:10.37,2013-12-04 12:51:00,
2013-12-04 05:52:00,53.5,42.8,29.81,South,180,1.1,1.1,67,0.00,CLR,,0.00,WeatherDisplay:10.37,2013-12-04 12:52:00,
2013-12-04 05:53:00,53.5,42.8,29.81,SW,235,3.4,3.4,67,0.00,CLR,,0.00,WeatherDisplay:10.37,2013-12-04 12:53:00,
2013-12-04 05:54:00,53.5,42.8,29.81,SW,225,2.3,2.3,67,0.00,CLR,,0.00,WeatherDisplay:10.37,2013-12-04 12:54:00,
2013-12-04 05:56:00,53.5,42.8,29.81,SW,225,0.0,0.0,67,0.00,CLR,,0.00,WeatherDisplay:10.37,2013-12-04 12:56:00,
2013-12-04 05:57:00,53.4,42.7,29.81,WNW,293,2.3,2.3,67,0.00,CLR,,0.00,WeatherDisplay:10.37,2013-12-04 12:57:00,
2013-12-04 05:58:00,53.4,42.7,29.81,West,259,2.3,2.3,67,0.00,CLR,,0.00,WeatherDisplay:10.37,2013-12-04 12:58:00,
2013-12-04 05:59:00,53.4,42.7,29.81,SW,235,1.1,1.1,67,0.00,CLR,,0.00,WeatherDisplay:10.37,2013-12-04 12:59:00,
2013-12-04 06:01:00,53.5,43.2,29.81,SE,136,3.4,3.4,68,0.00,CLR,,0.00,WeatherDisplay:10.37,2013-12-04 13:01:00,
2013-12-04 06:02:00,53.5,43.2,29.81,WSW,255,3.4,3.4,68,0.00,CLR,,0.00,WeatherDisplay:10.37,2013-12-04 13:02:00,
2013-12-04 06:03:00,53.6,43.3,29.81,WNW,285,4.6,4.6,68,0.00,CLR,,0.00,WeatherDisplay:10.37,2013-12-04 13:03:00,
2013-12-04 06:04:00,53.6,43.3,29.81,WSW,239,3.4,3.4,68,0.00,CLR,,0.00,WeatherDisplay:10.37,2013-12-04 13:04:00,
2013-12-04 06:05:00,53.6,42.9,29.81,WSW,256,3.0,3.0,67,0.00,CLR,,0.00,WeatherDisplay:10.37,2013-12-04 13:05:00,
2013-12-04 06:06:00,53.6,42.9,29.81,SSW,201,3.4,3.4,67,0.00,CLR,,0.00,WeatherDisplay:10.37,2013-12-04 13:06:00,
2013-12-04 06:07:00,53.6,42.9,29.81,SSW,203,3.4,3.4,67,0.00,CLR,,0.00,WeatherDisplay:10.37,2013-12-04 13:07:00,
2013-12-04 06:08:00,53.6,42.9,29.81,SW,231,3.4,3.4,67,0.00,CLR,,0.00,WeatherDisplay:10.37,2013-12-04 13:08:00,
2013-12-04 06:09:00,53.6,42.9,29.81,SW,229,2.3,2.3,67,0.00,CLR,,0.00,WeatherDisplay:10.37,2013-12-04 13:09:00,
2013-12-04 06:10:00,53.6,42.9,29.81,WSW,254,2.3,2.3,67,0.00,CLR,,0.00,WeatherDisplay:10.37,2013-12-04 13:10:00,
2013-12-04 06:12:00,53.5,42.8,29.81,WSW,249,2.3,2.3,67,0.00,CLR,,0.00,WeatherDisplay:10.37,2013-12-04 13:12:00,
2013-12-04 06:13:00,53.5,42.8,29.81,SW,231,4.6,4.6,67,0.00,CLR,,0.00,WeatherDisplay:10.37,2013-12-04 13:13:00,
2013-12-04 06:14:00,53.5,42.8,29.81,NNE,25,2.3,2.3,67,0.00,CLR,,0.00,WeatherDisplay:10.37,2013-12-04 13:14:00,
2013-12-04 06:16:00,53.5,42.8,29.82,SSE,149,2.3,2.3,67,0.00,CLR,,0.00,WeatherDisplay:10.37,2013-12-04 13:16:00,
2013-12-04 06:17:00,53.4,43.1,29.82,WSW,256,2.0,2.0,68,0.00,CLR,,0.00,WeatherDisplay:10.37,2013-12-04 13:17:00,
2013-12-04 06:18:00,53.3,43.0,29.81,WSW,247,1.1,1.1,68,0.00,CLR,,0.00,WeatherDisplay:10.37,2013-12-04 13:18:00,
2013-12-04 06:19:00,53.3,43.0,29.82,WSW,248,1.1,0.0,68,0.00,CLR,,0.00,WeatherDisplay:10.37,2013-12-04 13:19:00,
2013-12-04 06:21:00,53.2,42.9,29.82,SW,232,2.3,2.3,68,0.00,CLR,,0.00,WeatherDisplay:10.37,2013-12-04 13:21:00,
2013-12-04 06:22:00,53.2,42.9,29.82,SW,235,1.1,0.0,68,0.00,CLR,,0.00,WeatherDisplay:10.37,2013-12-04 13:22:00,
2013-12-04 06:24:00,53.1,42.8,29.82,SW,236,1.1,0.0,68,0.00,CLR,,0.00,WeatherDisplay:10.37,2013-12-04 13:24:00,
2013-12-04 06:26:00,53.0,42.7,29.82,SW,236,0.0,0.0,68,0.00,CLR,,0.00,WeatherDisplay:10.37,2013-12-04 13:26:00,
2013-12-04 06:27:00,53.0,43.1,29.82,SW,235,1.1,0.0,69,0.00,CLR,,0.00,WeatherDisplay:10.37,2013-12-04 13:27:00,
2013-12-04 06:28:00,53.0,43.1,29.82,SW,235,1.1,0.0,69,0.00,CLR,,0.00,WeatherDisplay:10.37,2013-12-04 13:28:00,
2013-12-04 06:29:00,52.9,43.0,29.82,SW,235,0.0,0.0,69,0.00,CLR,,0.00,WeatherDisplay:10.37,2013-12-04 13:29:00,
2013-12-04 06:31:00,52.8,42.9,29.82,SW,235,0.0,0.0,69,0.00,CLR,,0.00,WeatherDisplay:10.37,2013-12-04 13:31:00,
2013-12-04 06:32:00,52.7,42.8,29.83,SW,236,0.0,0.0,69,0.00,CLR,,0.00,WeatherDisplay:10.37,2013-12-04 13:32:00,
2013-12-04 06:33:00,52.7,42.8,29.83,SW,236,0.0,0.0,69,0.00,CLR,,0.00,WeatherDisplay:10.37,2013-12-04 13:33:00,
2013-12-04 06:34:00,52.7,42.8,29.83,SW,217,0.0,0.0,69,0.00,CLR,,0.00,WeatherDisplay:10.37,2013-12-04 13:34:00,
2013-12-04 06:37:00,52.7,43.2,29.83,WSW,246,0.0,0.0,70,0.00,CLR,,0.00,WeatherDisplay:10.37,2013-12-04 13:37:00,
2013-12-04 06:38:00,52.7,43.2,29.83,ESE,111,0.0,0.2,70,0.00,CLR,,0.00,WeatherDisplay:10.37,2013-12-04 13:38:00,
2013-12-04 06:39:00,52.7,43.2,29.83,ESE,111,1.1,0.0,70,0.00,CLR,,0.00,WeatherDisplay:10.37,2013-12-04 13:39:00,
2013-12-04 06:42:00,52.8,43.3,29.83,SW,219,1.1,1.1,70,0.00,CLR,,0.00,WeatherDisplay:10.37,2013-12-04 13:42:00,
2013-12-04 06:43:00,52.8,43.3,29.83,SW,219,1.1,1.1,70,0.00,CLR,,0.00,WeatherDisplay:10.37,2013-12-04 13:43:00,
2013-12-04 06:44:00,52.8,43.3,29.83,SW,219,0.0,0.0,70,0.00,CLR,,0.00,WeatherDisplay:10.37,2013-12-04 13:44:00,
2013-12-04 06:47:00,52.8,43.3,29.83,SE,145,0.0,0.0,70,0.00,CLR,,0.00,WeatherDisplay:10.37,2013-12-04 13:47:00,
2013-12-04 06:48:00,52.8,43.3,29.83,SE,145,0.0,0.0,70,0.00,CLR,,0.00,WeatherDisplay:10.37,2013-12-04 13:48:00,
2013-12-04 06:49:00,52.8,43.3,29.83,SE,146,0.0,0.0,70,0.00,CLR,,0.00,WeatherDisplay:10.37,2013-12-04 13:49:00,
2013-12-04 06:50:00,52.8,43.3,29.83,East,83,1.1,1.1,70,0.00,CLR,,0.00,WeatherDisplay:10.37,2013-12-04 13:50:00,
2013-12-04 06:52:00,52.9,43.4,29.83,SW,215,1.1,1.1,70,0.00,CLR,,0.00,WeatherDisplay:10.37,2013-12-04 13:52:00,
2013-12-04 06:54:00,52.9,43.4,29.83,East,86,1.1,1.1,70,0.00,CLR,,0.00,WeatherDisplay:10.37,2013-12-04 13:54:00,
2013-12-04 06:55:00,52.9,43.4,29.83,ESE,122,1.1,1.1,70,0.00,CLR,,0.00,WeatherDisplay:10.37,2013-12-04 13:55:00,
2013-12-04 06:57:00,53.1,43.6,29.83,East,84,1.1,1.1,70,0.00,CLR,,0.00,WeatherDisplay:10.37,2013-12-04 13:57:00,
2013-12-04 06:59:00,53.1,43.6,29.83,East,84,2.3,2.3,70,0.00,CLR,,0.00,WeatherDisplay:10.37,2013-12-04 13:59:00,
2013-12-04 07:00:00,53.2,43.7,29.83,SW,235,2.3,2.3,70,0.00,CLR,,0.00,WeatherDisplay:10.37,2013-12-04 14:00:00,
2013-12-04 07:02:00,53.3,43.8,29.83,SW,214,4.0,4.0,70,0.00,CLR,,0.00,WeatherDisplay:10.37,2013-12-04 14:02:00,
2013-12-04 07:04:00,53.4,43.5,29.83,SSE,162,4.6,4.6,69,0.00,CLR,,0.00,WeatherDisplay:10.37,2013-12-04 14:04:00,
2013-12-04 07:05:00,53.5,43.6,29.83,SSE,162,1.1,0.0,69,0.00,CLR,,0.00,WeatherDisplay:10.37,2013-12-04 14:05:00,
2013-12-04 07:08:00,53.7,43.8,29.83,SW,236,1.1,1.1,69,0.00,CLR,,0.00,WeatherDisplay:10.37,2013-12-04 14:08:00,
2013-12-04 07:09:00,53.7,43.8,29.83,SSE,154,1.1,1.1,69,0.00,CLR,,0.00,WeatherDisplay:10.37,2013-12-04 14:09:00,
2013-12-04 07:10:00,53.7,43.8,29.83,SW,227,2.3,2.3,69,0.00,CLR,,0.00,WeatherDisplay:10.37,2013-12-04 14:10:00,
2013-12-04 07:11:00,53.8,43.9,29.83,SW,226,2.3,2.3,69,0.00,CLR,,0.00,WeatherDisplay:10.37,2013-12-04 14:11:00,
2013-12-04 07:13:00,53.9,44.0,29.83,West,264,5.8,5.8,69,0.00,CLR,,0.00,WeatherDisplay:10.37,2013-12-04 14:13:00,
2013-12-04 07:14:00,53.9,43.6,29.83,SW,228,1.1,1.1,68,0.00,CLR,,0.00,WeatherDisplay:10.37,2013-12-04 14:14:00,
2013-12-04 07:16:00,54.0,43.7,29.83,SW,225,1.1,0.0,68,0.00,CLR,,0.00,WeatherDisplay:10.37,2013-12-04 14:16:00,
2013-12-04 07:17:00,54.0,43.7,29.83,SW,229,1.0,1.0,68,0.00,CLR,,0.00,WeatherDisplay:10.37,2013-12-04 14:17:00,
2013-12-04 07:18:00,54.0,43.7,29.83,SW,228,1.1,1.1,68,0.00,CLR,,0.00,WeatherDisplay:10.37,2013-12-04 14:18:00,
2013-12-04 07:19:00,54.0,43.7,29.83,SSW,194,2.3,2.3,68,0.00,CLR,,0.00,WeatherDisplay:10.37,2013-12-04 14:19:00,
2013-12-04 07:21:00,54.0,43.7,29.83,South,188,1.1,0.0,68,0.00,CLR,,0.00,WeatherDisplay:10.37,2013-12-04 14:21:00,
2013-12-04 07:22:00,53.9,43.6,29.83,South,172,1.1,1.1,68,0.00,CLR,,0.00,WeatherDisplay:10.37,2013-12-04 14:22:00,
2013-12-04 07:23:00,53.9,43.6,29.83,SW,219,2.3,2.3,68,0.00,CLR,,0.00,WeatherDisplay:10.37,2013-12-04 14:23:00,
2013-12-04 07:24:00,54.0,43.7,29.83,SW,218,3.4,3.4,68,0.00,CLR,,0.00,WeatherDisplay:10.37,2013-12-04 14:24:00,
2013-12-04 07:25:00,54.1,43.8,29.83,SSW,198,3.4,3.4,68,0.00,CLR,,0.00,WeatherDisplay:10.37,2013-12-04 14:25:00,
2013-12-04 07:26:00,54.1,43.8,29.83,SW,220,2.3,2.3,68,0.00,CLR,,0.00,WeatherDisplay:10.37,2013-12-04 14:26:00,
2013-12-04 07:27:00,54.1,43.8,29.83,SW,220,3.4,3.4,68,0.00,CLR,,0.00,WeatherDisplay:10.37,2013-12-04 14:27:00,
2013-12-04 07:28:00,54.2,43.9,29.83,SW,219,1.1,0.0,68,0.00,CLR,,0.00,WeatherDisplay:10.37,2013-12-04 14:28:00,
2013-12-04 07:30:00,54.2,43.9,29.83,West,270,1.1,1.1,68,0.00,CLR,,0.00,WeatherDisplay:10.37,2013-12-04 14:30:00,
2013-12-04 07:31:00,54.2,43.9,29.83,West,267,2.3,2.3,68,0.00,CLR,,0.00,WeatherDisplay:10.37,2013-12-04 14:31:00,
2013-12-04 07:32:00,54.2,43.9,29.83,SSW,208,1.1,1.1,68,0.00,CLR,,0.00,WeatherDisplay:10.37,2013-12-04 14:32:00,
2013-12-04 07:33:00,54.2,43.9,29.83,WSW,242,1.1,1.1,68,0.00,CLR,,0.00,WeatherDisplay:10.37,2013-12-04 14:33:00,
2013-12-04 07:34:00,54.2,43.9,29.83,WSW,242,1.1,1.1,68,0.00,CLR,,0.00,WeatherDisplay:10.37,2013-12-04 14:34:00,
2013-12-04 07:35:00,54.2,43.9,29.83,SSW,205,1.1,1.1,68,0.00,CLR,,0.00,WeatherDisplay:10.37,2013-12-04 14:35:00,
2013-12-04 07:36:00,54.2,43.9,29.83,SSW,205,0.0,0.0,68,0.00,CLR,,0.00,WeatherDisplay:10.37,2013-12-04 14:36:00,
2013-12-04 07:37:00,54.2,43.9,29.83,SSW,205,4.0,4.0,68,0.00,CLR,,0.00,WeatherDisplay:10.37,2013-12-04 14:37:00,
2013-12-04 07:39:00,54.2,43.9,29.83,SSW,200,1.1,1.1,68,0.00,CLR,,0.00,WeatherDisplay:10.37,2013-12-04 14:39:00,
2013-12-04 07:40:00,54.2,43.9,29.83,West,270,3.4,3.4,68,0.00,CLR,,0.00,WeatherDisplay:10.37,2013-12-04 14:40:00,
2013-12-04 07:42:00,54.3,44.0,29.83,NW,305,7.0,7.0,68,0.00,CLR,,0.00,WeatherDisplay:10.37,2013-12-04 14:42:00,
2013-12-04 07:44:00,54.6,44.2,29.83,WSW,244,3.4,3.4,68,0.00,CLR,,0.00,WeatherDisplay:10.37,2013-12-04 14:44:00,
2013-12-04 07:45:00,54.6,44.2,29.83,SW,236,4.6,4.6,68,0.00,CLR,,0.00,WeatherDisplay:10.37,2013-12-04 14:45:00,
2013-12-04 07:47:00,55.0,44.2,29.83,WSW,246,1.1,1.1,67,0.00,CLR,,0.00,WeatherDisplay:10.37,2013-12-04 14:47:00,
2013-12-04 07:49:00,55.3,44.5,29.83,SW,232,1.0,7.0,67,0.00,CLR,,0.00,WeatherDisplay:10.37,2013-12-04 14:49:00,
2013-12-04 07:50:00,55.5,44.3,29.83,West,267,2.3,2.3,66,0.00,CLR,,0.00,WeatherDisplay:10.37,2013-12-04 14:50:00,
2013-12-04 07:51:00,55.6,44.4,29.83,WNW,300,2.0,2.0,66,0.00,CLR,,0.00,WeatherDisplay:10.37,2013-12-04 14:51:00,
2013-12-04 07:52:00,55.8,44.6,29.83,SSE,153,2.3,2.3,66,0.00,CLR,,0.00,WeatherDisplay:10.37,2013-12-04 14:52:00,
2013-12-04 07:54:00,56.2,44.6,29.83,SSW,208,1.1,1.1,65,0.00,CLR,,0.00,WeatherDisplay:10.37,2013-12-04 14:54:00,
2013-12-04 07:55:00,56.3,44.3,29.83,WSW,246,2.3,2.3,64,0.00,CLR,,0.00,WeatherDisplay:10.37,2013-12-04 14:55:00,
2013-12-04 07:56:00,56.4,44.4,29.83,North,358,2.3,2.3,64,0.00,CLR,,0.00,WeatherDisplay:10.37,2013-12-04 14:56:00,
2013-12-04 07:57:00,56.4,44.4,29.83,SSW,205,1.1,1.1,64,0.00,CLR,,0.00,WeatherDisplay:10.37,2013-12-04 14:57:00,
2013-12-04 07:58:00,56.6,44.6,29.83,WSW,246,1.1,1.1,64,0.00,CLR,,0.00,WeatherDisplay:10.37,2013-12-04 14:58:00,
2013-12-04 07:59:00,56.7,44.7,29.83,WSW,246,1.1,1.1,64,0.00,CLR,,0.00,WeatherDisplay:10.37,2013-12-04 14:59:00,
2013-12-04 08:01:00,56.8,44.7,29.83,SSW,211,1.1,1.1,64,0.00,CLR,,0.00,WeatherDisplay:10.37,2013-12-04 15:01:00,
2013-12-04 08:02:00,56.9,44.8,29.83,WNW,285,2.3,2.3,64,0.00,CLR,,0.00,WeatherDisplay:10.37,2013-12-04 15:02:00,
2013-12-04 08:04:00,56.9,44.4,29.83,WNW,290,4.6,4.6,63,0.00,CLR,,0.00,WeatherDisplay:10.37,2013-12-04 15:04:00,
2013-12-04 08:05:00,57.0,44.5,29.83,West,263,4.6,4.6,63,0.00,CLR,,0.00,WeatherDisplay:10.37,2013-12-04 15:05:00,
2013-12-04 08:06:00,57.1,44.6,29.83,SW,222,3.4,3.4,63,0.00,CLR,,0.00,WeatherDisplay:10.37,2013-12-04 15:06:00,
2013-12-04 08:07:00,57.1,44.2,29.83,NE,47,6.9,6.9,62,0.00,CLR,,0.00,WeatherDisplay:10.37,2013-12-04 15:07:00,
2013-12-04 08:08:00,57.0,44.5,29.83,NW,316,6.0,6.0,63,0.00,CLR,,0.00,WeatherDisplay:10.37,2013-12-04 15:08:00,
2013-12-04 08:09:00,57.1,44.6,29.83,West,264,5.8,5.8,63,0.00,CLR,,0.00,WeatherDisplay:10.37,2013-12-04 15:09:00,
2013-12-04 08:10:00,57.1,44.6,29.83,WNW,292,3.4,3.8,63,0.00,CLR,,0.00,WeatherDisplay:10.37,2013-12-04 15:10:00,
2013-12-04 08:11:00,57.2,44.7,29.83,NNW,338,5.8,5.8,63,0.00,CLR,,0.00,WeatherDisplay:10.37,2013-12-04 15:11:00,
2013-12-04 08:12:00,57.2,44.3,29.83,WNW,288,8.0,8.0,62,0.00,CLR,,0.00,WeatherDisplay:10.37,2013-12-04 15:12:00,
2013-12-04 08:13:00,57.2,44.3,29.83,West,259,10.0,10.0,62,0.00,CLR,,0.00,WeatherDisplay:10.37,2013-12-04 15:13:00,
2013-12-04 08:14:00,57.2,44.3,29.83,WNW,292,10.3,10.3,62,0.00,CLR,,0.00,WeatherDisplay:10.37,2013-12-04 15:14:00,
2013-12-04 08:15:00,57.2,44.3,29.83,WNW,295,8.1,8.1,62,0.00,CLR,,0.00,WeatherDisplay:10.37,2013-12-04 15:15:00,
2013-12-04 08:16:00,57.2,44.3,29.83,West,281,5.8,5.8,62,0.00,CLR,,0.00,WeatherDisplay:10.37,2013-12-04 15:16:00,
2013-12-04 08:17:00,57.1,44.2,29.83,West,281,6.9,6.9,62,0.00,CLR,,0.00,WeatherDisplay:10.37,2013-12-04 15:17:00,
2013-12-04 08:18:00,57.2,44.7,29.83,NNW,337,4.0,4.0,63,0.00,CLR,,0.00,WeatherDisplay:10.37,2013-12-04 15:18:00,
2013-12-04 08:19:00,57.2,44.3,29.83,SW,215,4.0,4.0,62,0.00,CLR,,0.00,WeatherDisplay:10.37,2013-12-04 15:19:00,
2013-12-04 08:20:00,57.2,44.3,29.83,WNW,297,4.0,4.0,62,0.00,CLR,,0.00,WeatherDisplay:10.37,2013-12-04 15:20:00,
2013-12-04 08:21:00,57.2,44.3,29.83,NW,305,4.6,4.6,62,0.00,CLR,,0.00,WeatherDisplay:10.37,2013-12-04 15:21:00,
2013-12-04 08:22:00,57.2,44.3,29.83,West,278,5.8,5.8,62,0.00,CLR,,0.00,WeatherDisplay:10.37,2013-12-04 15:22:00,
2013-12-04 08:23:00,57.3,44.4,29.83,WSW,250,9.2,9.2,62,0.00,CLR,,0.00,WeatherDisplay:10.37,2013-12-04 15:23:00,
2013-12-04 08:24:00,57.3,44.4,29.83,WNW,288,6.0,6.0,62,0.00,CLR,,0.00,WeatherDisplay:10.37,2013-12-04 15:24:00,
2013-12-04 08:25:00,57.4,44.5,29.83,SW,215,3.4,3.4,62,0.00,CLR,,0.00,WeatherDisplay:10.37,2013-12-04 15:25:00,
2013-12-04 08:26:00,57.5,44.6,29.83,SW,214,5.8,5.8,62,0.00,CLR,,0.00,WeatherDisplay:10.37,2013-12-04 15:26:00,
2013-12-04 08:27:00,57.7,44.8,29.83,SE,134,2.3,0.0,62,0.00,CLR,,0.00,WeatherDisplay:10.37,2013-12-04 15:27:00,
2013-12-04 08:28:00,57.8,44.9,29.83,ENE,70,1.0,1.0,62,0.00,CLR,,0.00,WeatherDisplay:10.37,2013-12-04 15:28:00,
2013-12-04 08:30:00,58.2,44.8,29.83,West,260,3.4,3.4,61,0.00,CLR,,0.00,WeatherDisplay:10.37,2013-12-04 15:30:00,
2013-12-04 08:31:00,58.3,44.9,29.83,South,186,3.4,0.0,61,0.00,CLR,,0.00,WeatherDisplay:10.37,2013-12-04 15:31:00,
2013-12-04 08:32:00,58.5,45.1,29.83,West,264,3.4,3.4,61,0.00,CLR,,0.00,WeatherDisplay:10.37,2013-12-04 15:32:00,
2013-12-04 08:33:00,58.5,44.7,29.83,NW,319,3.4,3.4,60,0.00,CLR,,0.00,WeatherDisplay:10.37,2013-12-04 15:33:00,
2013-12-04 08:35:00,58.5,44.7,29.83,North,356,2.3,2.3,60,0.00,CLR,,0.00,WeatherDisplay:10.37,2013-12-04 15:35:00,
2013-12-04 08:36:00,58.6,44.8,29.83,WNW,285,1.1,1.1,60,0.00,CLR,,0.00,WeatherDisplay:10.37,2013-12-04 15:36:00,
2013-12-04 08:37:00,58.6,44.8,29.84,SW,235,3.4,3.4,60,0.00,CLR,,0.00,WeatherDisplay:10.37,2013-12-04 15:37:00,
2013-12-04 08:38:00,58.6,44.8,29.84,SW,215,3.4,3.4,60,0.00,CLR,,0.00,WeatherDisplay:10.37,2013-12-04 15:38:00,
2013-12-04 08:39:00,58.7,44.8,29.84,SW,219,3.4,3.4,60,0.00,CLR,,0.00,WeatherDisplay:10.37,2013-12-04 15:39:00,
2013-12-04 08:40:00,58.8,44.9,29.84,SE,142,1.1,1.1,60,0.00,CLR,,0.00,WeatherDisplay:10.37,2013-12-04 15:40:00,
2013-12-04 08:42:00,59.0,45.1,29.84,SW,224,3.4,3.4,60,0.00,CLR,,0.00,WeatherDisplay:10.37,2013-12-04 15:42:00,
2013-12-04 08:43:00,59.1,44.8,29.84,South,172,3.4,3.4,59,0.00,CLR,,0.00,WeatherDisplay:10.37,2013-12-04 15:43:00,
2013-12-04 08:44:00,59.2,44.9,29.84,SSW,193,2.3,2.3,59,0.00,CLR,,0.00,WeatherDisplay:10.37,2013-12-04 15:44:00,
2013-12-04 08:45:00,59.3,45.0,29.84,SSW,194,6.0,6.0,59,0.00,CLR,,0.00,WeatherDisplay:10.37,2013-12-04 15:45:00,
2013-12-04 08:47:00,59.3,45.0,29.84,WNW,292,11.5,11.5,59,0.00,CLR,,0.00,WeatherDisplay:10.37,2013-12-04 15:47:00,
2013-12-04 08:48:00,59.4,45.1,29.84,SW,221,4.6,4.6,59,0.00,CLR,,0.00,WeatherDisplay:10.37,2013-12-04 15:48:00,
2013-12-04 08:49:00,59.4,45.1,29.84,SW,228,5.0,5.0,59,0.00,CLR,,0.00,WeatherDisplay:10.37,2013-12-04 15:49:00,
2013-12-04 08:50:00,59.5,44.7,29.84,SW,220,9.2,9.2,58,0.00,CLR,,0.00,WeatherDisplay:10.37,2013-12-04 15:50:00,
2013-12-04 08:51:00,59.5,44.7,29.84,SW,215,12.0,12.0,58,0.00,CLR,,0.00,WeatherDisplay:10.37,2013-12-04 15:51:00,
2013-12-04 08:52:00,59.5,44.7,29.84,SSW,212,13.8,13.8,58,0.00,CLR,,0.00,WeatherDisplay:10.37,2013-12-04 15:52:00,
2013-12-04 08:53:00,59.6,44.3,29.84,SW,233,11.5,11.5,57,0.00,CLR,,0.00,WeatherDisplay:10.37,2013-12-04 15:53:00,
2013-12-04 08:54:00,59.7,44.9,29.84,SW,225,11.5,11.5,58,0.00,CLR,,0.00,WeatherDisplay:10.37,2013-12-04 15:54:00,
2013-12-04 08:55:00,59.7,44.4,29.84,SSW,201,10.3,10.3,57,0.00,CLR,,0.00,WeatherDisplay:10.37,2013-12-04 15:55:00,
2013-12-04 08:56:00,59.7,44.4,29.84,SSE,167,11.5,11.5,57,0.00,CLR,,0.00,WeatherDisplay:10.37,2013-12-04 15:56:00,
2013-12-04 08:58:00,59.8,44.5,29.84,South,174,11.5,11.5,57,0.00,CLR,,0.00,WeatherDisplay:10.37,2013-12-04 15:58:00,
2013-12-04 09:00:00,59.9,44.6,29.84,WSW,238,9.0,9.0,57,0.00,CLR,,0.00,WeatherDisplay:10.37,2013-12-04 16:00:00,
2013-12-04 09:01:00,60.0,44.7,29.84,West,263,11.5,11.5,57,0.00,CLR,,0.00,WeatherDisplay:10.37,2013-12-04 16:01:00,
2013-12-04 09:03:00,60.2,44.4,29.84,SSW,194,11.5,11.5,56,0.00,CLR,,0.00,WeatherDisplay:10.37,2013-12-04 16:03:00,
2013-12-04 09:04:00,60.3,44.5,29.84,SSW,198,11.5,11.5,56,0.00,CLR,,0.00,WeatherDisplay:10.37,2013-12-04 16:04:00,
2013-12-04 09:05:00,60.4,44.2,29.84,WSW,253,17.3,17.3,55,0.00,CLR,,0.00,WeatherDisplay:10.37,2013-12-04 16:05:00,
2013-12-04 09:06:00,60.4,44.2,29.84,SW,229,17.3,17.3,55,0.00,CLR,,0.00,WeatherDisplay:10.37,2013-12-04 16:06:00,
2013-12-04 09:09:00,60.6,44.3,29.84,WNW,299,11.5,11.5,55,0.00,CLR,,0.00,WeatherDisplay:10.37,2013-12-04 16:09:00,
2013-12-04 09:10:00,60.7,44.4,29.84,SW,233,11.5,11.5,55,0.00,CLR,,0.00,WeatherDisplay:10.37,2013-12-04 16:10:00,
2013-12-04 09:11:00,60.7,44.4,29.84,South,177,11.5,11.5,55,0.00,CLR,,0.00,WeatherDisplay:10.37,2013-12-04 16:11:00,
2013-12-04 09:12:00,60.7,44.4,29.84,SW,228,11.5,11.5,55,0.00,CLR,,0.00,WeatherDisplay:10.37,2013-12-04 16:12:00,
2013-12-04 09:14:00,60.9,44.1,29.84,SW,221,6.9,6.9,54,0.00,CLR,,0.00,WeatherDisplay:10.37,2013-12-04 16:14:00,
2013-12-04 09:15:00,61.0,44.2,29.84,SW,220,5.8,5.8,54,0.00,CLR,,0.00,WeatherDisplay:10.37,2013-12-04 16:15:00,
2013-12-04 09:16:00,61.1,44.3,29.84,SW,217,7.0,7.0,54,0.00,CLR,,0.00,WeatherDisplay:10.37,2013-12-04 16:16:00,
2013-12-04 09:17:00,61.2,44.4,29.84,SSW,201,9.0,9.0,54,0.00,CLR,,0.00,WeatherDisplay:10.37,2013-12-04 16:17:00,
2013-12-04 09:19:00,61.3,44.0,29.84,SW,226,13.8,13.8,53,0.00,CLR,,0.00,WeatherDisplay:10.37,2013-12-04 16:19:00,
2013-12-04 09:20:00,61.3,44.0,29.84,SW,219,14.9,14.9,53,0.00,CLR,,0.00,WeatherDisplay:10.37,2013-12-04 16:20:00,
2013-12-04 09:21:00,61.3,44.5,29.84,SSW,212,11.5,11.5,54,0.00,CLR,,0.00,WeatherDisplay:10.37,2013-12-04 16:21:00,
2013-12-04 09:22:00,61.4,44.1,29.84,SW,235,10.3,10.3,53,0.00,CLR,,0.00,WeatherDisplay:10.37,2013-12-04 16:22:00,
2013-12-04 09:25:00,61.6,43.8,29.84,South,176,11.5,11.5,52,0.00,CLR,,0.00,WeatherDisplay:10.37,2013-12-04 16:25:00,
2013-12-04 09:26:00,61.7,43.9,29.84,SW,228,11.5,11.5,52,0.00,CLR,,0.00,WeatherDisplay:10.37,2013-12-04 16:26:00,
2013-12-04 09:27:00,61.8,44.0,29.84,SSW,204,11.5,11.5,52,0.00,CLR,,0.00,WeatherDisplay:10.37,2013-12-04 16:27:00,
2013-12-04 09:30:00,62.0,44.2,29.84,SSW,201,11.5,11.5,52,0.00,CLR,,0.00,WeatherDisplay:10.37,2013-12-04 16:30:00,
2013-12-04 09:31:00,62.0,43.7,29.84,SW,217,13.8,13.8,51,0.00,CLR,,0.00,WeatherDisplay:10.37,2013-12-04 16:31:00,
2013-12-04 09:32:00,62.0,43.7,29.84,WSW,258,10.0,10.0,51,0.00,CLR,,0.00,WeatherDisplay:10.37,2013-12-04 16:32:00,
2013-12-04 09:35:00,62.4,44.0,29.84,NNW,331,6.9,6.9,51,0.00,CLR,,0.00,WeatherDisplay:10.37,2013-12-04 16:35:00,
2013-12-04 09:36:00,62.5,43.6,29.84,West,271,10.0,10.0,50,0.00,CLR,,0.00,WeatherDisplay:10.37,2013-12-04 16:36:00,
2013-12-04 09:37:00,62.5,43.6,29.84,SW,233,13.8,13.8,50,0.00,CLR,,0.00,WeatherDisplay:10.37,2013-12-04 16:37:00,
2013-12-04 09:40:00,62.5,43.6,29.84,SW,225,19.5,19.5,50,0.00,CLR,,0.00,WeatherDisplay:10.37,2013-12-04 16:40:00,
2013-12-04 09:41:00,62.6,43.7,29.84,WNW,293,16.1,16.1,50,0.00,CLR,,0.00,WeatherDisplay:10.37,2013-12-04 16:41:00,
2013-12-04 09:42:00,62.5,43.6,29.84,SW,220,16.1,16.1,50,0.00,CLR,,0.00,WeatherDisplay:10.37,2013-12-04 16:42:00,
2013-12-04 09:46:00,62.7,43.8,29.84,SW,216,13.8,13.8,50,0.00,CLR,,0.00,WeatherDisplay:10.37,2013-12-04 16:46:00,
2013-12-04 09:47:00,62.7,43.8,29.84,WNW,285,11.5,11.5,50,0.00,CLR,,0.00,WeatherDisplay:10.37,2013-12-04 16:47:00,
2013-12-04 09:48:00,62.7,43.8,29.84,SSW,197,13.8,13.8,50,0.00,CLR,,0.00,WeatherDisplay:10.37,2013-12-04 16:48:00,
2013-12-04 09:51:00,62.8,43.3,29.84,West,262,16.1,16.1,49,0.00,CLR,,0.00,WeatherDisplay:10.37,2013-12-04 16:51:00,
2013-12-04 09:52:00,62.8,43.9,29.84,West,270,16.1,16.1,50,0.00,CLR,,0.00,WeatherDisplay:10.37,2013-12-04 16:52:00,
2013-12-04 09:53:00,62.9,44.0,29.84,South,177,14.0,14.0,50,0.00,CLR,,0.00,WeatherDisplay:10.37,2013-12-04 16:53:00,
2013-12-04 09:56:00,62.9,43.4,29.84,SW,236,17.3,17.3,49,0.00,CLR,,0.00,WeatherDisplay:10.37,2013-12-04 16:56:00,
2013-12-04 09:58:00,62.9,43.4,29.84,West,278,19.5,19.5,49,0.00,CLR,,0.00,WeatherDisplay:10.37,2013-12-04 16:58:00,
2013-12-04 10:01:00,63.5,42.3,29.84,WNW,287,24.1,24.1,46,0.00,CLR,,0.00,WeatherDisplay:10.37,2013-12-04 17:01:00,
2013-12-04 10:02:00,63.2,43.2,29.84,SW,226,14.9,14.9,48,0.00,CLR,,0.00,WeatherDisplay:10.37,2013-12-04 17:02:00,
2013-12-04 10:03:00,63.3,43.8,29.83,WSW,248,16.1,16.1,49,0.00,CLR,,0.00,WeatherDisplay:10.37,2013-12-04 17:03:00,
2013-12-04 10:04:00,63.3,43.3,29.83,WSW,245,18.4,18.4,48,0.00,CLR,,0.00,WeatherDisplay:10.37,2013-12-04 17:04:00,
2013-12-04 10:07:00,63.6,43.0,29.84,SW,219,24.1,24.1,47,0.00,CLR,,0.00,WeatherDisplay:10.37,2013-12-04 17:07:00,
2013-12-04 10:08:00,63.6,43.0,29.83,SW,214,20.7,20.7,47,0.00,CLR,,0.00,WeatherDisplay:10.37,2013-12-04 17:08:00,
2013-12-04 10:09:00,63.6,43.0,29.84,WNW,287,16.1,16.1,47,0.00,CLR,,0.00,WeatherDisplay:10.37,2013-12-04 17:09:00,
2013-12-04 10:10:00,63.5,42.9,29.84,West,266,18.4,18.4,47,0.00,CLR,,0.00,WeatherDisplay:10.37,2013-12-04 17:10:00,
2013-12-04 10:12:00,63.4,42.8,29.83,West,263,13.8,13.8,47,0.00,CLR,,0.00,WeatherDisplay:10.37,2013-12-04 17:12:00,
2013-12-04 10:13:00,63.5,42.9,29.83,West,259,13.8,13.8,47,0.00,CLR,,0.00,WeatherDisplay:10.37,2013-12-04 17:13:00,
2013-12-04 10:14:00,63.5,42.9,29.83,WSW,244,21.9,21.9,47,0.00,CLR,,0.00,WeatherDisplay:10.37,2013-12-04 17:14:00,
2013-12-04 10:16:00,63.7,42.5,29.83,South,191,11.5,11.5,46,0.00,CLR,,0.00,WeatherDisplay:10.37,2013-12-04 17:16:00,
2013-12-04 10:17:00,63.8,43.2,29.83,WSW,255,19.5,19.5,47,0.00,CLR,,0.00,WeatherDisplay:10.37,2013-12-04 17:17:00,
2013-12-04 10:18:00,63.7,43.1,29.83,SW,225,18.0,18.0,47,0.00,CLR,,0.00,WeatherDisplay:10.37,2013-12-04 17:18:00,
2013-12-04 10:19:00,63.7,43.1,29.83,SW,235,17.0,17.0,47,0.00,CLR,,0.00,WeatherDisplay:10.37,2013-12-04 17:19:00,
2013-12-04 10:21:00,63.5,42.9,29.83,WSW,253,18.4,18.4,47,0.00,CLR,,0.00,WeatherDisplay:10.37,2013-12-04 17:21:00,
2013-12-04 10:23:00,63.5,42.9,29.83,South,181,19.5,19.5,47,0.00,CLR,,0.00,WeatherDisplay:10.37,2013-12-04 17:23:00,
2013-12-04 10:24:00,63.5,42.9,29.83,SW,232,17.3,17.3,47,0.00,CLR,,0.00,WeatherDisplay:10.37,2013-12-04 17:24:00,
2013-12-04 10:26:00,63.5,42.9,29.83,WSW,246,13.8,13.8,47,0.00,CLR,,0.00,WeatherDisplay:10.37,2013-12-04 17:26:00,
2013-12-04 10:28:00,63.4,42.8,29.83,West,262,12.0,12.0,47,0.00,CLR,,0.00,WeatherDisplay:10.37,2013-12-04 17:28:00,
2013-12-04 10:29:00,63.3,42.2,29.83,West,280,16.1,16.1,46,0.00,CLR,,0.00,WeatherDisplay:10.37,2013-12-04 17:29:00,
2013-12-04 10:30:00,63.4,42.2,29.83,SSW,212,11.5,11.5,46,0.00,CLR,,0.00,WeatherDisplay:10.37,2013-12-04 17:30:00,
2013-12-04 10:32:00,63.3,42.7,29.83,West,265,17.0,17.0,47,0.00,CLR,,0.00,WeatherDisplay:10.37,2013-12-04 17:32:00,
2013-12-04 10:33:00,63.3,42.7,29.83,WSW,256,17.3,17.3,47,0.00,CLR,,0.00,WeatherDisplay:10.37,2013-12-04 17:33:00,
2013-12-04 10:34:00,63.3,42.7,29.83,SW,221,11.5,11.5,47,0.00,CLR,,0.00,WeatherDisplay:10.37,2013-12-04 17:34:00,
2013-12-04 10:35:00,63.3,42.7,29.83,SSW,210,9.2,9.2,47,0.00,CLR,,0.00,WeatherDisplay:10.37,2013-12-04 17:35:00,
2013-12-04 10:38:00,63.3,42.7,29.83,West,270,13.8,13.8,47,0.00,CLR,,0.00,WeatherDisplay:10.37,2013-12-04 17:38:00,
2013-12-04 10:39:00,63.2,42.1,29.83,SSW,198,19.5,19.5,46,0.00,CLR,,0.00,WeatherDisplay:10.37,2013-12-04 17:39:00,
2013-12-04 10:40:00,63.2,42.1,29.83,SW,217,19.5,19.5,46,0.00,CLR,,0.00,WeatherDisplay:10.37,2013-12-04 17:40:00,
2013-12-04 10:43:00,63.1,42.0,29.83,SSW,208,13.8,13.8,46,0.00,CLR,,0.00,WeatherDisplay:10.37,2013-12-04 17:43:00,
2013-12-04 10:44:00,63.0,41.9,29.83,SW,232,19.5,19.5,46,0.00,CLR,,0.00,WeatherDisplay:10.37,2013-12-04 17:44:00,
2013-12-04 10:45:00,63.0,41.9,29.83,SSW,194,19.5,19.5,46,0.00,CLR,,0.00,WeatherDisplay:10.37,2013-12-04 17:45:00,
2013-12-04 10:48:00,63.1,42.0,29.83,NNW,330,14.9,14.9,46,0.00,CLR,,0.00,WeatherDisplay:10.37,2013-12-04 17:48:00,
2013-12-04 10:49:00,63.1,42.5,29.83,WSW,257,14.9,14.9,47,0.00,CLR,,0.00,WeatherDisplay:10.37,2013-12-04 17:49:00,
2013-12-04 10:50:00,63.2,42.6,29.83,NNW,338,14.9,14.9,47,0.00,CLR,,0.00,WeatherDisplay:10.37,2013-12-04 17:50:00,
2013-12-04 10:53:00,63.5,42.3,29.83,WSW,238,16.1,16.1,46,0.00,CLR,,0.00,WeatherDisplay:10.37,2013-12-04 17:53:00,
2013-12-04 10:54:00,63.7,42.5,29.83,West,278,14.9,14.9,46,0.00,CLR,,0.00,WeatherDisplay:10.37,2013-12-04 17:54:00,
2013-12-04 10:55:00,63.8,42.6,29.83,SSW,210,15.0,15.0,46,0.00,CLR,,0.00,WeatherDisplay:10.37,2013-12-04 17:55:00,
2013-12-04 10:58:00,64.4,43.2,29.83,SW,226,13.8,13.8,46,0.00,CLR,,0.00,WeatherDisplay:10.37,2013-12-04 17:58:00,
2013-12-04 11:00:00,64.6,42.8,29.82,WSW,255,17.3,17.3,45,0.00,CLR,,0.00,WeatherDisplay:10.37,2013-12-04 18:00:00,
2013-12-04 11:01:00,64.7,42.9,29.83,West,280,17.3,17.3,45,0.00,CLR,,0.00,WeatherDisplay:10.37,2013-12-04 18:01:00,
2013-12-04 11:03:00,64.8,42.4,29.82,WNW,297,14.9,14.9,44,0.00,CLR,,0.00,WeatherDisplay:10.37,2013-12-04 18:03:00,
2013-12-04 11:05:00,64.9,42.5,29.83,ESE,122,11.5,11.5,44,0.00,CLR,,0.00,WeatherDisplay:10.37,2013-12-04 18:05:00,
2013-12-04 11:06:00,64.9,42.5,29.83,WNW,288,19.5,19.5,44,0.00,CLR,,0.00,WeatherDisplay:10.37,2013-12-04 18:06:00,
2013-12-04 11:08:00,64.7,41.7,29.83,SW,228,18.4,18.4,43,0.00,CLR,,0.00,WeatherDisplay:10.37,2013-12-04 18:08:00,
2013-12-04 11:10:00,64.7,41.7,29.83,West,266,11.5,11.5,43,0.00,CLR,,0.00,WeatherDisplay:10.37,2013-12-04 18:10:00,
2013-12-04 11:11:00,64.7,41.7,29.83,WSW,240,14.9,14.9,43,0.00,CLR,,0.00,WeatherDisplay:10.37,2013-12-04 18:11:00,
2013-12-04 11:13:00,64.9,41.9,29.83,ENE,63,14.9,14.9,43,0.00,CLR,,0.00,WeatherDisplay:10.37,2013-12-04 18:13:00,
2013-12-04 11:15:00,64.9,41.9,29.83,WNW,290,11.5,11.5,43,0.00,CLR,,0.00,WeatherDisplay:10.37,2013-12-04 18:15:00,
2013-12-04 11:16:00,64.9,41.9,29.83,SW,233,19.5,19.5,43,0.00,CLR,,0.00,WeatherDisplay:10.37,2013-12-04 18:16:00,
2013-12-04 11:17:00,64.9,41.9,29.83,North,1,10.3,10.3,43,0.00,CLR,,0.00,WeatherDisplay:10.37,2013-12-04 18:17:00,
2013-12-04 11:19:00,65.0,42.5,29.83,West,274,5.8,5.8,44,0.00,CLR,,0.00,WeatherDisplay:10.37,2013-12-04 18:19:00,
2013-12-04 11:20:00,65.1,42.0,29.83,WSW,252,10.3,10.3,43,0.00,CLR,,0.00,WeatherDisplay:10.37,2013-12-04 18:20:00,
2013-12-04 11:21:00,65.2,41.5,29.83,WSW,256,11.5,11.5,42,0.00,CLR,,0.00,WeatherDisplay:10.37,2013-12-04 18:21:00,
2013-12-04 11:22:00,65.2,41.5,29.83,WNW,297,17.3,17.3,42,0.00,CLR,,0.00,WeatherDisplay:10.37,2013-12-04 18:22:00,
2013-12-04 11:25:00,64.8,41.2,29.82,SW,219,14.9,14.9,42,0.00,CLR,,0.00,WeatherDisplay:10.37,2013-12-04 18:25:00,
2013-12-04 11:26:00,64.8,41.2,29.82,West,266,14.9,14.9,42,0.00,CLR,,0.00,WeatherDisplay:10.37,2013-12-04 18:26:00,
2013-12-04 11:27:00,64.7,41.1,29.82,WNW,283,13.8,13.8,42,0.00,CLR,,0.00,WeatherDisplay:10.37,2013-12-04 18:27:00,
2013-12-04 11:30:00,64.5,40.3,29.82,WSW,253,11.5,11.5,41,0.00,CLR,,0.00,WeatherDisplay:10.37,2013-12-04 18:30:00,
2013-12-04 11:31:00,64.4,40.2,29.82,SSW,200,17.0,17.0,41,0.00,CLR,,0.00,WeatherDisplay:10.37,2013-12-04 18:31:00,
2013-12-04 11:32:00,64.4,40.2,29.82,SSW,207,17.3,17.3,41,0.00,CLR,,0.00,WeatherDisplay:10.37,2013-12-04 18:32:00,
2013-12-04 11:36:00,64.4,40.2,29.82,SSW,203,20.7,20.7,41,0.00,CLR,,0.00,WeatherDisplay:10.37,2013-12-04 18:36:00,
2013-12-04 11:37:00,64.4,40.2,29.82,WSW,243,21.0,21.0,41,0.00,CLR,,0.00,WeatherDisplay:10.37,2013-12-04 18:37:00,
2013-12-04 11:38:00,64.4,40.2,29.82,West,278,19.5,19.5,41,0.00,CLR,,0.00,WeatherDisplay:10.37,2013-12-04 18:38:00,
2013-12-04 11:41:00,64.4,40.2,29.82,WSW,240,23.0,23.0,41,0.00,CLR,,0.00,WeatherDisplay:10.37,2013-12-04 18:41:00,
2013-12-04 11:43:00,64.4,40.2,29.82,West,274,13.8,13.8,41,0.00,CLR,,0.00,WeatherDisplay:10.37,2013-12-04 18:43:00,
2013-12-04 11:46:00,64.4,39.5,29.82,WSW,257,13.8,13.8,40,0.00,CLR,,0.00,WeatherDisplay:10.37,2013-12-04 18:46:00,
2013-12-04 11:48:00,64.6,39.7,29.82,West,260,16.1,16.1,40,0.00,CLR,,0.00,WeatherDisplay:10.37,2013-12-04 18:48:00,
2013-12-04 11:49:00,64.7,39.8,29.82,West,262,11.5,11.5,40,0.00,CLR,,0.00,WeatherDisplay:10.37,2013-12-04 18:49:00,
2013-12-04 11:51:00,65.1,40.2,29.82,SSW,197,16.0,16.0,40,0.00,CLR,,0.00,WeatherDisplay:10.37,2013-12-04 18:51:00,
2013-12-04 11:52:00,65.2,40.3,29.82,South,188,23.0,23.0,40,0.00,CLR,,0.00,WeatherDisplay:10.37,2013-12-04 18:52:00,
2013-12-04 11:53:00,65.3,39.7,29.82,SW,214,20.7,20.7,39,0.00,CLR,,0.00,WeatherDisplay:10.37,2013-12-04 18:53:00,
2013-12-04 11:54:00,65.5,39.9,29.82,WNW,287,14.9,14.9,39,0.00,CLR,,0.00,WeatherDisplay:10.37,2013-12-04 18:54:00,
2013-12-04 11:56:00,65.5,39.9,29.82,WSW,252,13.8,13.8,39,0.00,CLR,,0.00,WeatherDisplay:10.37,2013-12-04 18:56:00,
2013-12-04 11:57:00,65.5,39.9,29.82,WSW,245,19.5,19.5,39,0.00,CLR,,0.00,WeatherDisplay:10.37,2013-12-04 18:57:00,
2013-12-04 11:58:00,65.4,39.1,29.82,WNW,295,14.0,14.0,38,0.00,CLR,,0.00,WeatherDisplay:10.37,2013-12-04 18:58:00,
2013-12-04 11:59:00,65.3,39.7,29.81,West,259,13.8,13.8,39,0.00,CLR,,0.00,WeatherDisplay:10.37,2013-12-04 18:59:00,
2013-12-04 12:01:00,65.0,39.4,29.81,WSW,238,24.1,24.1,39,0.00,CLR,,0.00,WeatherDisplay:10.37,2013-12-04 19:01:00,
2013-12-04 12:02:00,64.9,39.3,29.81,SW,219,19.5,19.5,39,0.00,CLR,,0.00,WeatherDisplay:10.37,2013-12-04 19:02:00,
2013-12-04 12:03:00,64.7,39.8,29.81,SW,228,18.4,18.4,40,0.00,CLR,,0.00,WeatherDisplay:10.37,2013-12-04 19:03:00,
2013-12-04 12:04:00,64.7,39.2,29.81,WSW,238,18.4,18.4,39,0.00,CLR,,0.00,WeatherDisplay:10.37,2013-12-04 19:04:00,
2013-12-04 12:06:00,64.6,39.7,29.80,SSW,193,13.8,13.8,40,0.00,CLR,,0.00,WeatherDisplay:10.37,2013-12-04 19:06:00,
2013-12-04 12:07:00,64.5,39.6,29.80,WNW,290,11.5,11.5,40,0.00,CLR,,0.00,WeatherDisplay:10.37,2013-12-04 19:07:00,
2013-12-04 12:08:00,64.5,39.6,29.80,WSW,238,20.0,20.0,40,0.00,CLR,,0.00,WeatherDisplay:10.37,2013-12-04 19:08:00,
2013-12-04 12:09:00,64.5,39.6,29.80,ENE,63,23.0,23.0,40,0.00,CLR,,0.00,WeatherDisplay:10.37,2013-12-04 19:09:00,
2013-12-04 12:11:00,64.4,39.5,29.80,WNW,282,14.9,14.9,40,0.00,CLR,,0.00,WeatherDisplay:10.37,2013-12-04 19:11:00,
2013-12-04 12:12:00,64.4,39.5,29.80,SSE,167,19.5,19.5,40,0.00,CLR,,0.00,WeatherDisplay:10.37,2013-12-04 19:12:00,
2013-12-04 12:13:00,64.5,39.6,29.80,West,267,23.0,23.0,40,0.00,CLR,,0.00,WeatherDisplay:10.37,2013-12-04 19:13:00,
2013-12-04 12:14:00,64.6,39.7,29.80,NW,317,13.8,13.8,40,0.00,CLR,,0.00,WeatherDisplay:10.37,2013-12-04 19:14:00,
2013-12-04 12:15:00,64.7,39.8,29.80,SW,222,10.3,10.3,40,0.00,CLR,,0.00,WeatherDisplay:10.37,2013-12-04 19:15:00,
2013-12-04 12:16:00,65.2,40.3,29.79,South,190,14.9,14.9,40,0.00,CLR,,0.00,WeatherDisplay:10.37,2013-12-04 19:16:00,
2013-12-04 12:18:00,65.5,39.2,29.79,SW,226,19.5,19.5,38,0.00,CLR,,0.00,WeatherDisplay:10.37,2013-12-04 19:18:00,
2013-12-04 12:19:00,65.7,39.4,29.79,South,183,27.6,27.6,38,0.00,CLR,,0.00,WeatherDisplay:10.37,2013-12-04 19:19:00,
2013-12-04 12:20:00,65.8,38.8,29.79,South,191,22.0,22.0,37,0.00,CLR,,0.00,WeatherDisplay:10.37,2013-12-04 19:20:00,
2013-12-04 12:21:00,66.0,39.0,29.78,SW,234,21.9,21.9,37,0.00,CLR,,0.00,WeatherDisplay:10.37,2013-12-04 19:21:00,
2013-12-04 12:23:00,66.1,38.4,29.78,WSW,256,21.9,21.9,36,0.00,CLR,,0.00,WeatherDisplay:10.37,2013-12-04 19:23:00,
2013-12-04 12:24:00,66.2,38.4,29.78,SSE,167,20.7,20.7,36,0.00,CLR,,0.00,WeatherDisplay:10.37,2013-12-04 19:24:00,
2013-12-04 12:25:00,66.3,38.5,29.78,South,188,19.5,19.5,36,0.00,CLR,,0.00,WeatherDisplay:10.37,2013-12-04 19:25:00,
2013-12-04 12:27:00,66.4,39.3,29.78,West,264,27.6,27.6,37,0.00,CLR,,0.00,WeatherDisplay:10.37,2013-12-04 19:27:00,
2013-12-04 12:28:00,66.4,39.3,29.78,SW,224,19.5,19.5,37,0.00,CLR,,0.00,WeatherDisplay:10.37,2013-12-04 19:28:00,
2013-12-04 12:29:00,66.4,39.3,29.77,WSW,239,23.0,23.0,37,0.00,CLR,,0.00,WeatherDisplay:10.37,2013-12-04 19:29:00,
2013-12-04 12:30:00,66.5,39.4,29.78,SW,219,21.9,21.9,37,0.00,CLR,,0.00,WeatherDisplay:10.37,2013-12-04 19:30:00,
2013-12-04 12:32:00,66.6,39.5,29.78,WSW,245,16.1,16.1,37,0.00,CLR,,0.00,WeatherDisplay:10.37,2013-12-04 19:32:00,
2013-12-04 12:33:00,66.8,39.7,29.77,South,181,11.5,11.5,37,0.00,CLR,,0.00,WeatherDisplay:10.37,2013-12-04 19:33:00,
2013-12-04 12:34:00,67.1,39.9,29.78,WNW,297,12.0,12.0,37,0.00,CLR,,0.00,WeatherDisplay:10.37,2013-12-04 19:34:00,
2013-12-04 12:35:00,67.1,39.2,29.77,SW,224,21.0,21.0,36,0.00,CLR,,0.00,WeatherDisplay:10.37,2013-12-04 19:35:00,
2013-12-04 12:36:00,67.3,39.4,29.77,SSW,197,20.7,20.7,36,0.00,CLR,,0.00,WeatherDisplay:10.37,2013-12-04 19:36:00,
2013-12-04 12:37:00,67.3,39.4,29.77,SW,235,20.0,20.0,36,0.00,CLR,,0.00,WeatherDisplay:10.37,2013-12-04 19:37:00,
2013-12-04 12:38:00,67.3,38.7,29.77,SW,219,19.5,19.5,35,0.00,CLR,,0.00,WeatherDisplay:10.37,2013-12-04 19:38:00,
2013-12-04 12:39:00,67.3,39.4,29.76,SW,231,21.0,21.0,36,0.00,CLR,,0.00,WeatherDisplay:10.37,2013-12-04 19:39:00,
2013-12-04 12:40:00,67.3,39.4,29.76,WNW,297,18.0,18.0,36,0.00,CLR,,0.00,WeatherDisplay:10.37,2013-12-04 19:40:00,
2013-12-04 12:41:00,67.3,39.4,29.77,NW,319,20.7,20.7,36,0.00,CLR,,0.00,WeatherDisplay:10.37,2013-12-04 19:41:00,
2013-12-04 12:42:00,67.3,39.4,29.77,WSW,241,16.0,16.0,36,0.00,CLR,,0.00,WeatherDisplay:10.37,2013-12-04 19:42:00,
2013-12-04 12:44:00,67.1,39.2,29.77,West,279,18.4,18.4,36,0.00,CLR,,0.00,WeatherDisplay:10.37,2013-12-04 19:44:00,
2013-12-04 12:45:00,67.1,39.2,29.77,WSW,255,24.1,24.1,36,0.00,CLR,,0.00,WeatherDisplay:10.37,2013-12-04 19:45:00,
2013-12-04 12:46:00,67.1,39.2,29.77,South,187,13.8,13.8,36,0.00,CLR,,0.00,WeatherDisplay:10.37,2013-12-04 19:46:00,
2013-12-04 12:47:00,67.1,39.2,29.77,SSE,159,19.5,19.5,36,0.00,CLR,,0.00,WeatherDisplay:10.37,2013-12-04 19:47:00,
2013-12-04 12:49:00,67.2,39.3,29.77,SSW,208,21.9,21.9,36,0.00,CLR,,0.00,WeatherDisplay:10.37,2013-12-04 19:49:00,
2013-12-04 12:50:00,67.2,39.3,29.77,NW,305,23.0,23.0,36,0.00,CLR,,0.00,WeatherDisplay:10.37,2013-12-04 19:50:00,
2013-12-04 12:51:00,67.1,38.5,29.77,WSW,240,26.4,26.4,35,0.00,CLR,,0.00,WeatherDisplay:10.37,2013-12-04 19:51:00,
2013-12-04 12:52:00,67.1,38.5,29.77,SSW,200,26.4,26.4,35,0.00,CLR,,0.00,WeatherDisplay:10.37,2013-12-04 19:52:00,
2013-12-04 12:53:00,67.1,38.5,29.77,SW,217,24.1,24.1,35,0.00,CLR,,0.00,WeatherDisplay:10.37,2013-12-04 19:53:00,
2013-12-04 12:55:00,67.0,39.1,29.77,West,277,11.5,11.5,36,0.00,CLR,,0.00,WeatherDisplay:10.37,2013-12-04 19:55:00,
2013-12-04 12:56:00,67.1,39.2,29.77,WSW,249,19.5,19.5,36,0.00,CLR,,0.00,WeatherDisplay:10.37,2013-12-04 19:56:00,
2013-12-04 12:57:00,67.0,39.1,29.77,WSW,238,19.5,19.5,36,0.00,CLR,,0.00,WeatherDisplay:10.37,2013-12-04 19:57:00,
2013-12-04 13:00:00,66.9,39.1,29.76,SW,228,18.4,18.4,36,0.00,CLR,,0.00,WeatherDisplay:10.37,2013-12-04 20:00:00,
2013-12-04 13:01:00,66.8,39.0,29.77,WSW,238,25.3,25.3,36,0.00,CLR,,0.00,WeatherDisplay:10.37,2013-12-04 20:01:00,
2013-12-04 13:02:00,66.8,39.0,29.77,SW,235,25.3,25.3,36,0.00,CLR,,0.00,WeatherDisplay:10.37,2013-12-04 20:02:00,
2013-12-04 13:06:00,66.9,39.1,29.76,SW,235,13.8,13.8,36,0.00,CLR,,0.00,WeatherDisplay:10.37,2013-12-04 20:06:00,
2013-12-04 13:07:00,66.9,39.1,29.77,WSW,239,17.3,17.3,36,0.00,CLR,,0.00,WeatherDisplay:10.37,2013-12-04 20:07:00,
2013-12-04 13:08:00,67.0,39.1,29.77,SE,131,18.4,18.4,36,0.00,CLR,,0.00,WeatherDisplay:10.37,2013-12-04 20:08:00,
2013-12-04 13:11:00,67.1,38.5,29.76,South,191,21.9,21.9,35,0.00,CLR,,0.00,WeatherDisplay:10.37,2013-12-04 20:11:00,
2013-12-04 13:12:00,67.0,38.4,29.76,SW,233,19.5,19.5,35,0.00,CLR,,0.00,WeatherDisplay:10.37,2013-12-04 20:12:00,
2013-12-04 13:13:00,67.1,38.5,29.76,SSW,210,16.1,16.1,35,0.00,CLR,,0.00,WeatherDisplay:10.37,2013-12-04 20:13:00,
2013-12-04 13:16:00,67.2,38.6,29.77,WNW,288,10.3,10.3,35,0.00,CLR,,0.00,WeatherDisplay:10.37,2013-12-04 20:16:00,
2013-12-04 13:17:00,67.3,38.7,29.77,WSW,249,11.5,11.5,35,0.00,CLR,,0.00,WeatherDisplay:10.37,2013-12-04 20:17:00,
2013-12-04 13:18:00,67.2,37.9,29.77,West,263,19.5,19.5,34,0.00,CLR,,0.00,WeatherDisplay:10.37,2013-12-04 20:18:00,
2013-12-04 13:21:00,66.7,38.2,29.77,SW,235,19.5,19.5,35,0.00,CLR,,0.00,WeatherDisplay:10.37,2013-12-04 20:21:00,
2013-12-04 13:22:00,66.6,38.1,29.77,SW,222,19.5,19.5,35,0.00,CLR,,0.00,WeatherDisplay:10.37,2013-12-04 20:22:00,
2013-12-04 13:23:00,66.5,38.0,29.77,SW,225,19.5,19.5,35,0.00,CLR,,0.00,WeatherDisplay:10.37,2013-12-04 20:23:00,
2013-12-04 13:26:00,66.0,37.5,29.77,SW,225,16.1,16.1,35,0.00,CLR,,0.00,WeatherDisplay:10.37,2013-12-04 20:26:00,
2013-12-04 13:27:00,66.0,38.3,29.77,SSW,195,18.4,18.4,36,0.00,CLR,,0.00,WeatherDisplay:10.37,2013-12-04 20:27:00,
2013-12-04 13:28:00,66.0,38.3,29.77,SW,224,18.4,18.4,36,0.00,CLR,,0.00,WeatherDisplay:10.37,2013-12-04 20:28:00,
2013-12-04 13:32:00,65.7,38.0,29.77,West,263,13.8,13.8,36,0.00,CLR,,0.00,WeatherDisplay:10.37,2013-12-04 20:32:00,
2013-12-04 13:33:00,65.7,38.0,29.77,West,260,16.1,16.1,36,0.00,CLR,,0.00,WeatherDisplay:10.37,2013-12-04 20:33:00,
2013-12-04 13:34:00,65.7,38.0,29.76,WSW,242,11.5,11.5,36,0.00,CLR,,0.00,WeatherDisplay:10.37,2013-12-04 20:34:00,
2013-12-04 13:37:00,65.6,37.9,29.77,WSW,245,12.0,12.0,36,0.00,CLR,,0.00,WeatherDisplay:10.37,2013-12-04 20:37:00,
2013-12-04 13:38:00,65.6,37.9,29.77,WSW,238,19.5,19.5,36,0.00,CLR,,0.00,WeatherDisplay:10.37,2013-12-04 20:38:00,
2013-12-04 13:39:00,65.6,37.9,29.77,SW,226,19.5,19.5,36,0.00,CLR,,0.00,WeatherDisplay:10.37,2013-12-04 20:39:00,
2013-12-04 13:42:00,65.5,37.8,29.77,SW,226,12.0,12.0,36,0.00,CLR,,0.00,WeatherDisplay:10.37,2013-12-04 20:42:00,
2013-12-04 13:43:00,65.5,37.8,29.77,WSW,257,11.5,11.5,36,0.00,CLR,,0.00,WeatherDisplay:10.37,2013-12-04 20:43:00,
2013-12-04 13:44:00,65.5,37.8,29.77,SW,228,19.5,19.5,36,0.00,CLR,,0.00,WeatherDisplay:10.37,2013-12-04 20:44:00,
2013-12-04 13:45:00,65.5,37.8,29.77,WSW,255,13.8,13.8,36,0.00,CLR,,0.00,WeatherDisplay:10.37,2013-12-04 20:45:00,
2013-12-04 13:47:00,65.5,37.8,29.77,SSW,194,17.3,17.3,36,0.00,CLR,,0.00,WeatherDisplay:10.37,2013-12-04 20:47:00,
2013-12-04 13:49:00,65.5,37.8,29.77,SW,225,19.5,19.5,36,0.00,CLR,,0.00,WeatherDisplay:10.37,2013-12-04 20:49:00,
2013-12-04 13:50:00,65.5,37.8,29.77,WSW,253,26.4,26.4,36,0.00,CLR,,0.00,WeatherDisplay:10.37,2013-12-04 20:50:00,
2013-12-04 13:52:00,65.5,37.1,29.77,SW,222,16.1,16.1,35,0.00,CLR,,0.00,WeatherDisplay:10.37,2013-12-04 20:52:00,
2013-12-04 13:54:00,65.4,37.0,29.77,SW,231,17.3,17.3,35,0.00,CLR,,0.00,WeatherDisplay:10.37,2013-12-04 20:54:00,
2013-12-04 13:55:00,65.4,37.0,29.77,SW,215,21.9,21.9,35,0.00,CLR,,0.00,WeatherDisplay:10.37,2013-12-04 20:55:00,
2013-12-04 13:57:00,65.4,37.0,29.78,SW,229,21.9,21.9,35,0.00,CLR,,0.00,WeatherDisplay:10.37,2013-12-04 20:57:00,
2013-12-04 13:58:00,65.4,37.0,29.77,WSW,243,21.9,21.9,35,0.00,CLR,,0.00,WeatherDisplay:10.37,2013-12-04 20:58:00,
2013-12-04 13:59:00,65.4,37.0,29.77,WNW,288,19.5,19.5,35,0.00,CLR,,0.00,WeatherDisplay:10.37,2013-12-04 20:59:00,
2013-12-04 14:00:00,65.4,37.0,29.77,WSW,245,17.3,17.3,35,0.00,CLR,,0.00,WeatherDisplay:10.37,2013-12-04 21:00:00,
2013-12-04 14:02:00,65.3,36.9,29.77,West,270,11.5,11.5,35,0.00,CLR,,0.00,WeatherDisplay:10.37,2013-12-04 21:02:00,
2013-12-04 14:03:00,65.3,36.9,29.77,WNW,285,14.0,14.0,35,0.00,CLR,,0.00,WeatherDisplay:10.37,2013-12-04 21:03:00,
2013-12-04 14:04:00,65.3,36.9,29.77,WSW,245,13.8,13.8,35,0.00,CLR,,0.00,WeatherDisplay:10.37,2013-12-04 21:04:00,
2013-12-04 14:05:00,65.2,37.6,29.77,SW,215,11.5,11.5,36,0.00,CLR,,0.00,WeatherDisplay:10.37,2013-12-04 21:05:00,
2013-12-04 14:08:00,65.2,36.8,29.77,SW,224,14.0,14.0,35,0.00,CLR,,0.00,WeatherDisplay:10.37,2013-12-04 21:08:00,
2013-12-04 14:09:00,65.2,36.8,29.77,SW,215,16.0,16.0,35,0.00,CLR,,0.00,WeatherDisplay:10.37,2013-12-04 21:09:00,
2013-12-04 14:10:00,65.2,36.8,29.77,SSW,202,16.1,16.1,35,0.00,CLR,,0.00,WeatherDisplay:10.37,2013-12-04 21:10:00,
2013-12-04 14:13:00,65.1,37.5,29.77,West,281,13.8,13.8,36,0.00,CLR,,0.00,WeatherDisplay:10.37,2013-12-04 21:13:00,
2013-12-04 14:14:00,65.1,37.5,29.77,West,259,13.8,13.8,36,0.00,CLR,,0.00,WeatherDisplay:10.37,2013-12-04 21:14:00,
2013-12-04 14:15:00,65.1,37.5,29.77,West,262,16.1,16.1,36,0.00,CLR,,0.00,WeatherDisplay:10.37,2013-12-04 21:15:00,
2013-12-04 14:16:00,65.1,37.5,29.77,WNW,301,16.1,16.1,36,0.00,CLR,,0.00,WeatherDisplay:10.37,2013-12-04 21:16:00,
2013-12-04 14:18:00,65.1,37.5,29.77,SW,225,18.4,18.4,36,0.00,CLR,,0.00,WeatherDisplay:10.37,2013-12-04 21:18:00,
2013-12-04 14:19:00,65.1,37.5,29.77,West,281,18.4,18.4,36,0.00,CLR,,0.00,WeatherDisplay:10.37,2013-12-04 21:19:00,
2013-12-04 14:20:00,65.1,38.2,29.77,SW,215,18.4,18.4,37,0.00,CLR,,0.00,WeatherDisplay:10.37,2013-12-04 21:20:00,
2013-12-04 14:21:00,65.0,38.1,29.77,West,259,17.3,17.3,37,0.00,CLR,,0.00,WeatherDisplay:10.37,2013-12-04 21:21:00,
2013-12-04 14:22:00,65.0,38.1,29.77,NNW,338,23.0,23.0,37,0.00,CLR,,0.00,WeatherDisplay:10.37,2013-12-04 21:22:00,
2013-12-04 14:24:00,65.0,38.1,29.77,WSW,249,24.1,24.1,37,0.00,CLR,,0.00,WeatherDisplay:10.37,2013-12-04 21:24:00,
2013-12-04 14:25:00,65.0,37.4,29.77,SW,226,16.1,16.1,36,0.00,CLR,,0.00,WeatherDisplay:10.37,2013-12-04 21:25:00,
2013-12-04 14:26:00,64.9,37.3,29.77,SSW,204,24.1,24.1,36,0.00,CLR,,0.00,WeatherDisplay:10.37,2013-12-04 21:26:00,
2013-12-04 14:27:00,64.9,37.3,29.77,WSW,248,11.5,11.5,36,0.00,CLR,,0.00,WeatherDisplay:10.37,2013-12-04 21:27:00,
2013-12-04 14:29:00,64.9,37.3,29.77,SW,224,19.5,19.5,36,0.00,CLR,,0.00,WeatherDisplay:10.37,2013-12-04 21:29:00,
2013-12-04 14:30:00,64.9,37.3,29.77,SSW,205,17.3,17.3,36,0.00,CLR,,0.00,WeatherDisplay:10.37,2013-12-04 21:30:00,
2013-12-04 14:31:00,64.9,37.3,29.77,West,263,11.5,11.5,36,0.00,CLR,,0.00,WeatherDisplay:10.37,2013-12-04 21:31:00,
2013-12-04 14:32:00,65.0,37.4,29.77,SW,235,11.5,11.5,36,0.00,CLR,,0.00,WeatherDisplay:10.37,2013-12-04 21:32:00,
2013-12-04 14:34:00,65.0,36.7,29.77,NNW,336,8.1,8.1,35,0.00,CLR,,0.00,WeatherDisplay:10.37,2013-12-04 21:34:00,
2013-12-04 14:35:00,65.1,36.8,29.78,West,281,19.5,19.5,35,0.00,CLR,,0.00,WeatherDisplay:10.37,2013-12-04 21:35:00,
2013-12-04 14:36:00,65.2,36.8,29.77,West,274,18.4,18.4,35,0.00,CLR,,0.00,WeatherDisplay:10.37,2013-12-04 21:36:00,
2013-12-04 14:37:00,65.2,36.8,29.77,West,266,18.4,18.4,35,0.00,CLR,,0.00,WeatherDisplay:10.37,2013-12-04 21:37:00,
2013-12-04 14:39:00,65.4,37.0,29.77,SSW,209,11.5,11.5,35,0.00,CLR,,0.00,WeatherDisplay:10.37,2013-12-04 21:39:00,
2013-12-04 14:40:00,65.5,37.1,29.78,SW,232,11.5,11.5,35,0.00,CLR,,0.00,WeatherDisplay:10.37,2013-12-04 21:40:00,
2013-12-04 14:42:00,65.5,37.1,29.77,West,281,11.5,11.5,35,0.00,CLR,,0.00,WeatherDisplay:10.37,2013-12-04 21:42:00,
2013-12-04 14:44:00,65.9,37.5,29.77,SW,236,9.2,9.2,35,0.00,CLR,,0.00,WeatherDisplay:10.37,2013-12-04 21:44:00,
2013-12-04 14:45:00,66.2,37.7,29.77,WSW,252,11.5,11.5,35,0.00,CLR,,0.00,WeatherDisplay:10.37,2013-12-04 21:45:00,
2013-12-04 14:47:00,66.6,37.3,29.77,SW,227,11.5,11.5,34,0.00,CLR,,0.00,WeatherDisplay:10.37,2013-12-04 21:47:00,
2013-12-04 14:48:00,66.7,37.4,29.77,SSW,195,9.2,9.2,34,0.00,CLR,,0.00,WeatherDisplay:10.37,2013-12-04 21:48:00,
2013-12-04 14:49:00,66.9,36.8,29.77,WSW,239,19.5,19.5,33,0.00,CLR,,0.00,WeatherDisplay:10.37,2013-12-04 21:49:00,
2013-12-04 14:51:00,67.1,37.0,29.77,WSW,248,22.0,22.0,33,0.00,CLR,,0.00,WeatherDisplay:10.37,2013-12-04 21:51:00,
2013-12-04 14:52:00,67.1,37.0,29.77,East,91,21.9,21.9,33,0.00,CLR,,0.00,WeatherDisplay:10.37,2013-12-04 21:52:00,
2013-12-04 14:53:00,67.2,36.3,29.77,West,263,13.8,13.8,32,0.00,CLR,,0.00,WeatherDisplay:10.37,2013-12-04 21:53:00,
2013-12-04 14:54:00,67.2,36.3,29.77,NW,312,11.5,11.5,32,0.00,CLR,,0.00,WeatherDisplay:10.37,2013-12-04 21:54:00,
2013-12-04 14:56:00,67.4,36.5,29.77,West,278,11.5,11.5,32,0.00,CLR,,0.00,WeatherDisplay:10.37,2013-12-04 21:56:00,
2013-12-04 14:58:00,67.4,36.5,29.77,SW,225,11.5,11.5,32,0.00,CLR,,0.00,WeatherDisplay:10.37,2013-12-04 21:58:00,
2013-12-04 14:59:00,67.4,36.5,29.77,SW,236,13.8,13.8,32,0.00,CLR,,0.00,WeatherDisplay:10.37,2013-12-04 21:59:00,
2013-12-04 15:01:00,67.3,36.4,29.77,SSW,197,11.5,11.5,32,0.00,CLR,,0.00,WeatherDisplay:10.37,2013-12-04 22:01:00,
2013-12-04 15:03:00,67.2,36.3,29.77,WSW,249,25.3,25.3,32,0.00,CLR,,0.00,WeatherDisplay:10.37,2013-12-04 22:03:00,
2013-12-04 15:04:00,67.0,36.1,29.77,WSW,238,19.5,19.5,32,0.00,CLR,,0.00,WeatherDisplay:10.37,2013-12-04 22:04:00,
2013-12-04 15:05:00,66.9,36.8,29.77,NW,312,19.5,19.5,33,0.00,CLR,,0.00,WeatherDisplay:10.37,2013-12-04 22:05:00,
2013-12-04 15:06:00,66.8,36.0,29.77,SW,225,16.1,16.1,32,0.00,CLR,,0.00,WeatherDisplay:10.37,2013-12-04 22:06:00,
2013-12-04 15:08:00,66.7,35.9,29.77,WNW,284,14.9,14.9,32,0.00,CLR,,0.00,WeatherDisplay:10.37,2013-12-04 22:08:00,
2013-12-04 15:09:00,66.7,35.9,29.77,WNW,289,9.2,9.2,32,0.00,CLR,,0.00,WeatherDisplay:10.37,2013-12-04 22:09:00,
2013-12-04 15:10:00,66.6,35.8,29.77,SW,225,11.5,11.5,32,0.00,CLR,,0.00,WeatherDisplay:10.37,2013-12-04 22:10:00,
2013-12-04 15:11:00,66.6,35.8,29.77,SW,233,11.5,11.5,32,0.00,CLR,,0.00,WeatherDisplay:10.37,2013-12-04 22:11:00,
2013-12-04 15:13:00,66.6,35.8,29.77,SW,233,11.5,11.5,32,0.00,CLR,,0.00,WeatherDisplay:10.37,2013-12-04 22:13:00,
2013-12-04 15:15:00,66.6,36.6,29.77,SW,224,7.0,7.0,33,0.00,CLR,,0.00,WeatherDisplay:10.37,2013-12-04 22:15:00,
2013-12-04 15:16:00,66.7,36.7,29.77,SW,232,17.3,17.3,33,0.00,CLR,,0.00,WeatherDisplay:10.37,2013-12-04 22:16:00,
2013-12-04 15:18:00,66.7,35.9,29.77,WSW,253,25.3,25.3,32,0.00,CLR,,0.00,WeatherDisplay:10.37,2013-12-04 22:18:00,
2013-12-04 15:20:00,66.7,36.7,29.77,NW,313,11.5,11.5,33,0.00,CLR,,0.00,WeatherDisplay:10.37,2013-12-04 22:20:00,
2013-12-04 15:21:00,66.7,36.7,29.78,West,278,8.1,8.1,33,0.00,CLR,,0.00,WeatherDisplay:10.37,2013-12-04 22:21:00,
2013-12-04 15:23:00,66.9,36.1,29.78,WSW,239,19.5,19.5,32,0.00,CLR,,0.00,WeatherDisplay:10.37,2013-12-04 22:23:00,
2013-12-04 15:25:00,66.6,35.8,29.78,WSW,241,21.9,21.9,32,0.00,CLR,,0.00,WeatherDisplay:10.37,2013-12-04 22:25:00,
2013-12-04 15:26:00,66.6,35.8,29.77,SW,217,21.9,21.9,32,0.00,CLR,,0.00,WeatherDisplay:10.37,2013-12-04 22:26:00,
2013-12-04 15:27:00,66.5,36.5,29.78,SW,215,17.3,17.3,33,0.00,CLR,,0.00,WeatherDisplay:10.37,2013-12-04 22:27:00,
2013-12-04 15:28:00,66.3,36.3,29.77,SW,226,18.4,18.4,33,0.00,CLR,,0.00,WeatherDisplay:10.37,2013-12-04 22:28:00,
2013-12-04 15:31:00,66.2,36.2,29.77,SW,215,20.7,20.7,33,0.00,CLR,,0.00,WeatherDisplay:10.37,2013-12-04 22:31:00,
2013-12-04 15:32:00,66.2,36.2,29.78,SSE,150,19.5,19.5,33,0.00,CLR,,0.00,WeatherDisplay:10.37,2013-12-04 22:32:00,
2013-12-04 15:33:00,66.2,35.4,29.77,SSW,198,17.3,17.3,32,0.00,CLR,,0.00,WeatherDisplay:10.37,2013-12-04 22:33:00,
2013-12-04 15:36:00,66.4,35.6,29.77,WSW,248,14.0,14.0,32,0.00,CLR,,0.00,WeatherDisplay:10.37,2013-12-04 22:36:00,
2013-12-04 15:37:00,66.4,35.6,29.77,SW,217,13.8,13.8,32,0.00,CLR,,0.00,WeatherDisplay:10.37,2013-12-04 22:37:00,
2013-12-04 15:39:00,66.3,35.5,29.78,SW,221,20.7,20.7,32,0.00,CLR,,0.00,WeatherDisplay:10.37,2013-12-04 22:39:00,
2013-12-04 15:41:00,66.2,35.4,29.78,NW,315,19.5,19.5,32,0.00,CLR,,0.00,WeatherDisplay:10.37,2013-12-04 22:41:00,
2013-12-04 15:42:00,66.2,35.4,29.77,SW,219,19.5,19.5,32,0.00,CLR,,0.00,WeatherDisplay:10.37,2013-12-04 22:42:00,
2013-12-04 15:43:00,66.2,35.4,29.78,WSW,252,11.5,11.5,32,0.00,CLR,,0.00,WeatherDisplay:10.37,2013-12-04 22:43:00,
2013-12-04 15:44:00,66.1,34.6,29.77,West,259,17.3,17.3,31,0.00,CLR,,0.00,WeatherDisplay:10.37,2013-12-04 22:44:00,
2013-12-04 15:46:00,66.0,35.3,29.77,SSW,193,13.8,13.8,32,0.00,CLR,,0.00,WeatherDisplay:10.37,2013-12-04 22:46:00,
2013-12-04 15:47:00,66.0,35.3,29.77,West,259,13.8,13.8,32,0.00,CLR,,0.00,WeatherDisplay:10.37,2013-12-04 22:47:00,
2013-12-04 15:48:00,66.0,35.3,29.77,SW,226,11.5,11.5,32,0.00,CLR,,0.00,WeatherDisplay:10.37,2013-12-04 22:48:00,
2013-12-04 15:49:00,65.9,35.2,29.78,SSW,200,13.8,13.8,32,0.00,CLR,,0.00,WeatherDisplay:10.37,2013-12-04 22:49:00,
2013-12-04 15:51:00,65.8,35.1,29.78,SW,225,15.0,15.0,32,0.00,CLR,,0.00,WeatherDisplay:10.37,2013-12-04 22:51:00,
2013-12-04 15:52:00,65.7,35.0,29.78,SSW,210,14.9,14.9,32,0.00,CLR,,0.00,WeatherDisplay:10.37,2013-12-04 22:52:00,
2013-12-04 15:53:00,65.6,34.9,29.78,WSW,242,14.9,14.9,32,0.00,CLR,,0.00,WeatherDisplay:10.37,2013-12-04 22:53:00,
2013-12-04 15:54:00,65.5,34.0,29.78,SW,226,19.5,19.5,31,0.00,CLR,,0.00,WeatherDisplay:10.37,2013-12-04 22:54:00,
2013-12-04 15:57:00,65.2,34.6,29.78,SSW,211,21.0,21.0,32,0.00,CLR,,0.00,WeatherDisplay:10.37,2013-12-04 22:57:00,
2013-12-04 15:58:00,65.2,34.6,29.78,West,274,20.7,20.7,32,0.00,CLR,,0.00,WeatherDisplay:10.37,2013-12-04 22:58:00,
2013-12-04 15:59:00,65.1,34.5,29.78,SW,222,20.7,20.7,32,0.00,CLR,,0.00,WeatherDisplay:10.37,2013-12-04 22:59:00,
2013-12-04 16:02:00,64.9,34.3,29.78,SSW,207,25.3,25.3,32,0.00,CLR,,0.00,WeatherDisplay:10.37,2013-12-04 23:02:00,
2013-12-04 16:03:00,64.9,34.3,29.78,SSW,193,25.3,25.3,32,0.00,CLR,,0.00,WeatherDisplay:10.37,2013-12-04 23:03:00,
2013-12-04 16:04:00,64.9,34.3,29.78,WSW,238,16.1,16.1,32,0.00,CLR,,0.00,WeatherDisplay:10.37,2013-12-04 23:04:00,
2013-12-04 16:07:00,64.9,34.3,29.78,SW,217,23.0,23.0,32,0.00,CLR,,0.00,WeatherDisplay:10.37,2013-12-04 23:07:00,
2013-12-04 16:08:00,64.9,33.5,29.78,West,277,23.0,23.0,31,0.00,CLR,,0.00,WeatherDisplay:10.37,2013-12-04 23:08:00,
2013-12-04 16:09:00,64.9,33.5,29.78,SW,219,19.5,19.5,31,0.00,CLR,,0.00,WeatherDisplay:10.37,2013-12-04 23:09:00,
2013-12-04 16:10:00,64.9,33.5,29.78,SW,226,19.5,19.5,31,0.00,CLR,,0.00,WeatherDisplay:10.37,2013-12-04 23:10:00,
2013-12-04 16:12:00,64.8,34.2,29.78,West,281,23.0,23.0,32,0.00,CLR,,0.00,WeatherDisplay:10.37,2013-12-04 23:12:00,
2013-12-04 16:13:00,64.8,34.2,29.78,West,259,19.5,19.5,32,0.00,CLR,,0.00,WeatherDisplay:10.37,2013-12-04 23:13:00,
2013-12-04 16:14:00,64.7,34.1,29.78,WSW,239,19.5,19.5,32,0.00,CLR,,0.00,WeatherDisplay:10.37,2013-12-04 23:14:00,
2013-12-04 16:15:00,64.7,34.1,29.78,SW,214,17.0,17.0,32,0.00,CLR,,0.00,WeatherDisplay:10.37,2013-12-04 23:15:00,
2013-12-04 16:17:00,64.7,34.1,29.79,SW,222,14.9,14.9,32,0.00,CLR,,0.00,WeatherDisplay:10.37,2013-12-04 23:17:00,
2013-12-04 16:19:00,64.7,34.1,29.78,WSW,257,16.1,16.1,32,0.00,CLR,,0.00,WeatherDisplay:10.37,2013-12-04 23:19:00,
2013-12-04 16:20:00,64.7,34.1,29.78,West,266,11.5,11.5,32,0.00,CLR,,0.00,WeatherDisplay:10.37,2013-12-04 23:20:00,
2013-12-04 16:21:00,64.7,34.1,29.79,SW,233,16.1,16.1,32,0.00,CLR,,0.00,WeatherDisplay:10.37,2013-12-04 23:21:00,
2013-12-04 16:23:00,64.6,34.1,29.79,SW,222,11.5,11.5,32,0.00,CLR,,0.00,WeatherDisplay:10.37,2013-12-04 23:23:00,
2013-12-04 16:24:00,64.6,34.1,29.79,SW,215,14.9,14.9,32,0.00,CLR,,0.00,WeatherDisplay:10.37,2013-12-04 23:24:00,
2013-12-04 16:25:00,64.6,34.1,29.79,South,169,14.9,14.9,32,0.00,CLR,,0.00,WeatherDisplay:10.37,2013-12-04 23:25:00,
2013-12-04 16:26:00,64.6,34.1,29.79,SSW,200,9.2,9.2,32,0.00,CLR,,0.00,WeatherDisplay:10.37,2013-12-04 23:26:00,
2013-12-04 16:28:00,64.5,34.0,29.79,SW,228,18.0,18.0,32,0.00,CLR,,0.00,WeatherDisplay:10.37,2013-12-04 23:28:00,
2013-12-04 16:29:00,64.4,33.9,29.79,WSW,253,17.3,17.3,32,0.00,CLR,,0.00,WeatherDisplay:10.37,2013-12-04 23:29:00,
2013-12-04 16:30:00,64.4,33.9,29.80,WSW,249,17.3,17.3,32,0.00,CLR,,0.00,WeatherDisplay:10.37,2013-12-04 23:30:00,
2013-12-04 16:32:00,64.3,33.8,29.80,South,187,11.5,11.5,32,0.00,CLR,,0.00,WeatherDisplay:10.37,2013-12-04 23:32:00,
2013-12-04 16:34:00,64.3,33.0,29.80,South,183,10.3,10.3,31,0.00,CLR,,0.00,WeatherDisplay:10.37,2013-12-04 23:34:00,
2013-12-04 16:35:00,64.3,33.8,29.80,West,278,13.8,13.8,32,0.00,CLR,,0.00,WeatherDisplay:10.37,2013-12-04 23:35:00,
2013-12-04 16:36:00,64.2,32.9,29.80,West,262,17.3,17.3,31,0.00,CLR,,0.00,WeatherDisplay:10.37,2013-12-04 23:36:00,
2013-12-04 16:37:00,64.2,32.9,29.80,SW,218,17.3,17.3,31,0.00,CLR,,0.00,WeatherDisplay:10.37,2013-12-04 23:37:00,
2013-12-04 16:39:00,64.1,32.8,29.81,SW,219,19.5,19.5,31,0.00,CLR,,0.00,WeatherDisplay:10.37,2013-12-04 23:39:00,
2013-12-04 16:40:00,64.0,32.7,29.80,SW,235,19.5,19.5,31,0.00,CLR,,0.00,WeatherDisplay:10.37,2013-12-04 23:40:00,
2013-12-04 16:41:00,64.0,32.7,29.80,SW,236,18.4,18.4,31,0.00,CLR,,0.00,WeatherDisplay:10.37,2013-12-04 23:41:00,
2013-12-04 16:42:00,63.9,32.6,29.81,West,278,16.1,16.1,31,0.00,CLR,,0.00,WeatherDisplay:10.37,2013-12-04 23:42:00,
2013-12-04 16:43:00,63.8,32.6,29.80,WSW,245,16.1,16.1,31,0.00,CLR,,0.00,WeatherDisplay:10.37,2013-12-04 23:43:00,
2013-12-04 16:45:00,63.7,32.5,29.80,SW,235,11.5,11.5,31,0.00,CLR,,0.00,WeatherDisplay:10.37,2013-12-04 23:45:00,
2013-12-04 16:46:00,63.7,32.5,29.80,WSW,257,11.5,11.5,31,0.00,CLR,,0.00,WeatherDisplay:10.37,2013-12-04 23:46:00,
2013-12-04 16:47:00,63.6,32.4,29.80,West,278,10.3,10.3,31,0.00,CLR,,0.00,WeatherDisplay:10.37,2013-12-04 23:47:00,
2013-12-04 16:48:00,63.5,32.3,29.81,SSW,208,11.5,11.5,31,0.00,CLR,,0.00,WeatherDisplay:10.37,2013-12-04 23:48:00,
2013-12-04 16:50:00,63.4,33.0,29.81,SW,222,9.2,9.2,32,0.00,CLR,,0.00,WeatherDisplay:10.37,2013-12-04 23:50:00,
2013-12-04 16:52:00,63.3,32.9,29.81,WSW,241,11.5,11.5,32,0.00,CLR,,0.00,WeatherDisplay:10.37,2013-12-04 23:52:00,
2013-12-04 16:54:00,63.1,32.7,29.81,NW,312,10.3,10.3,32,0.00,CLR,,0.00,WeatherDisplay:10.37,2013-12-04 23:54:00,
2013-12-04 16:55:00,63.0,32.7,29.81,ESE,113,10.3,10.3,32,0.00,CLR,,0.00,WeatherDisplay:10.37,2013-12-04 23:55:00,
2013-12-04 16:57:00,62.9,32.6,29.81,WSW,249,12.0,12.0,32,0.00,CLR,,0.00,WeatherDisplay:10.37,2013-12-04 23:57:00,
2013-12-04 16:59:00,62.9,32.6,29.81,WSW,250,11.5,11.5,32,0.00,CLR,,0.00,WeatherDisplay:10.37,2013-12-04 23:59:00,
2013-12-04 17:00:00,62.9,32.6,29.82,WNW,282,11.5,11.5,32,0.00,CLR,,0.00,WeatherDisplay:10.37,2013-12-05 00:00:00,
2013-12-04 17:01:00,62.8,32.5,29.81,WSW,239,11.5,11.5,32,0.00,CLR,,0.00,WeatherDisplay:10.37,2013-12-05 00:01:00,
2013-12-04 17:02:00,62.8,32.5,29.81,SW,224,11.5,11.5,32,0.00,CLR,,0.00,WeatherDisplay:10.37,2013-12-05 00:02:00,
2013-12-04 17:03:00,62.7,32.4,29.81,WSW,252,11.5,11.5,32,0.00,CLR,,0.00,WeatherDisplay:10.37,2013-12-05 00:03:00,
2013-12-04 17:04:00,62.7,32.4,29.81,West,263,13.8,13.8,32,0.00,CLR,,0.00,WeatherDisplay:10.37,2013-12-05 00:04:00,
2013-12-04 17:05:00,62.7,32.4,29.81,WSW,243,13.8,13.8,32,0.00,CLR,,0.00,WeatherDisplay:10.37,2013-12-05 00:05:00,
2013-12-04 17:06:00,62.6,32.3,29.81,SW,221,12.0,12.0,32,0.00,CLR,,0.00,WeatherDisplay:10.37,2013-12-05 00:06:00,
2013-12-04 17:07:00,62.6,32.3,29.82,SW,229,11.5,11.5,32,0.00,CLR,,0.00,WeatherDisplay:10.37,2013-12-05 00:07:00,
2013-12-04 17:09:00,62.5,32.2,29.82,East,93,14.9,14.9,32,0.00,CLR,,0.00,WeatherDisplay:10.37,2013-12-05 00:09:00,
2013-12-04 17:10:00,62.5,32.2,29.82,SW,224,9.2,9.2,32,0.00,CLR,,0.00,WeatherDisplay:10.37,2013-12-05 00:10:00,
2013-12-04 17:11:00,62.5,32.2,29.82,SW,215,8.1,8.1,32,0.00,CLR,,0.00,WeatherDisplay:10.37,2013-12-05 00:11:00,
2013-12-04 17:12:00,62.4,32.1,29.82,SW,215,9.2,9.2,32,0.00,CLR,,0.00,WeatherDisplay:10.37,2013-12-05 00:12:00,
2013-12-04 17:14:00,62.4,32.1,29.82,SSW,211,10.3,10.3,32,0.00,CLR,,0.00,WeatherDisplay:10.37,2013-12-05 00:14:00,
2013-12-04 17:15:00,62.3,32.8,29.82,SSW,204,14.9,14.9,33,0.00,CLR,,0.00,WeatherDisplay:10.37,2013-12-05 00:15:00,
2013-12-04 17:16:00,62.3,32.8,29.82,West,266,14.9,14.9,33,0.00,CLR,,0.00,WeatherDisplay:10.37,2013-12-05 00:16:00,
2013-12-04 17:18:00,62.2,32.7,29.82,SW,226,7.0,7.0,33,0.00,CLR,,0.00,WeatherDisplay:10.37,2013-12-05 00:18:00,
2013-12-04 17:19:00,62.2,32.7,29.82,SW,224,10.3,10.3,33,0.00,CLR,,0.00,WeatherDisplay:10.37,2013-12-05 00:19:00,
2013-12-04 17:21:00,62.1,33.4,29.82,SSW,193,11.5,11.5,34,0.00,CLR,,0.00,WeatherDisplay:10.37,2013-12-05 00:21:00,
2013-12-04 17:23:00,62.1,33.4,29.82,SW,215,16.1,16.1,34,0.00,CLR,,0.00,WeatherDisplay:10.37,2013-12-05 00:23:00,
2013-12-04 17:24:00,62.0,33.3,29.82,SW,224,11.5,11.5,34,0.00,CLR,,0.00,WeatherDisplay:10.37,2013-12-05 00:24:00,
2013-12-04 17:26:00,62.0,33.3,29.82,SW,228,11.5,11.5,34,0.00,CLR,,0.00,WeatherDisplay:10.37,2013-12-05 00:26:00,
2013-12-04 17:27:00,62.0,33.3,29.82,SSW,204,14.0,14.0,34,0.00,CLR,,0.00,WeatherDisplay:10.37,2013-12-05 00:27:00,
2013-12-04 17:28:00,61.9,33.9,29.82,NW,311,14.9,14.9,35,0.00,CLR,,0.00,WeatherDisplay:10.37,2013-12-05 00:28:00,
2013-12-04 17:29:00,61.8,33.8,29.82,West,259,13.8,13.8,35,0.00,CLR,,0.00,WeatherDisplay:10.37,2013-12-05 00:29:00,
2013-12-04 17:31:00,61.8,33.8,29.82,West,274,8.1,8.1,35,0.00,CLR,,0.00,WeatherDisplay:10.37,2013-12-05 00:31:00,
2013-12-04 17:32:00,61.8,33.8,29.82,West,266,8.1,8.1,35,0.00,CLR,,0.00,WeatherDisplay:10.37,2013-12-05 00:32:00,
2013-12-04 17:33:00,61.7,33.7,29.82,SSE,150,11.5,11.5,35,0.00,CLR,,0.00,WeatherDisplay:10.37,2013-12-05 00:33:00,
2013-12-04 17:35:00,61.6,33.7,29.82,SSW,208,13.8,13.8,35,0.00,CLR,,0.00,WeatherDisplay:10.37,2013-12-05 00:35:00,
2013-12-04 17:36:00,61.6,33.7,29.82,WSW,238,16.0,16.0,35,0.00,CLR,,0.00,WeatherDisplay:10.37,2013-12-05 00:36:00,
2013-12-04 17:37:00,61.6,33.7,29.82,WSW,248,14.0,14.0,35,0.00,CLR,,0.00,WeatherDisplay:10.37,2013-12-05 00:37:00,
2013-12-04 17:38:00,61.5,33.6,29.82,SSW,208,16.1,16.1,35,0.00,CLR,,0.00,WeatherDisplay:10.37,2013-12-05 00:38:00,
2013-12-04 17:40:00,61.5,34.3,29.82,WSW,256,13.8,13.8,36,0.00,CLR,,0.00,WeatherDisplay:10.37,2013-12-05 00:40:00,
2013-12-04 17:42:00,61.4,34.2,29.82,SW,226,13.8,13.8,36,0.00,CLR,,0.00,WeatherDisplay:10.37,2013-12-05 00:42:00,
2013-12-04 17:44:00,61.3,34.1,29.83,WSW,244,11.5,11.5,36,0.00,CLR,,0.00,WeatherDisplay:10.37,2013-12-05 00:44:00,
2013-12-04 17:45:00,61.3,34.1,29.83,SSW,212,11.5,11.5,36,0.00,CLR,,0.00,WeatherDisplay:10.37,2013-12-05 00:45:00,
2013-12-04 17:47:00,61.2,34.0,29.83,SW,235,10.3,10.3,36,0.00,CLR,,0.00,WeatherDisplay:10.37,2013-12-05 00:47:00,
2013-12-04 17:50:00,61.1,33.9,29.83,SSW,198,11.5,11.5,36,0.00,CLR,,0.00,WeatherDisplay:10.37,2013-12-05 00:50:00,
2013-12-04 17:51:00,61.1,33.9,29.83,SSW,195,11.5,11.5,36,0.00,CLR,,0.00,WeatherDisplay:10.37,2013-12-05 00:51:00,
2013-12-04 17:52:00,61.0,33.8,29.83,SW,215,11.5,11.5,36,0.00,CLR,,0.00,WeatherDisplay:10.37,2013-12-05 00:52:00,
2013-12-04 17:53:00,61.0,33.8,29.83,WSW,246,10.3,10.3,36,0.00,CLR,,0.00,WeatherDisplay:10.37,2013-12-05 00:53:00,
2013-12-04 17:55:00,60.9,34.4,29.83,SW,232,8.1,8.1,37,0.00,CLR,,0.00,WeatherDisplay:10.37,2013-12-05 00:55:00,
2013-12-04 17:57:00,60.9,34.4,29.83,West,262,8.1,8.1,37,0.00,CLR,,0.00,WeatherDisplay:10.37,2013-12-05 00:57:00,
2013-12-04 17:58:00,60.8,34.3,29.83,South,191,16.1,16.1,37,0.00,CLR,,0.00,WeatherDisplay:10.37,2013-12-05 00:58:00,
2013-12-04 18:00:00,60.8,34.3,29.83,West,262,17.3,17.3,37,0.00,CLR,,0.00,WeatherDisplay:10.37,2013-12-05 01:00:00,
2013-12-04 18:02:00,60.8,34.3,29.83,SSW,212,17.3,17.3,37,0.00,CLR,,0.00,WeatherDisplay:10.37,2013-12-05 01:02:00,
2013-12-04 18:03:00,60.7,34.3,29.84,SSW,210,12.0,12.0,37,0.00,CLR,,0.00,WeatherDisplay:10.37,2013-12-05 01:03:00,
2013-12-04 18:06:00,60.7,34.3,29.84,SW,224,18.4,18.4,37,0.00,CLR,,0.00,WeatherDisplay:10.37,2013-12-05 01:06:00,
2013-12-04 18:07:00,60.6,34.2,29.84,WSW,250,14.9,14.9,37,0.00,CLR,,0.00,WeatherDisplay:10.37,2013-12-05 01:07:00,
2013-12-04 18:08:00,60.6,34.2,29.84,SSW,195,7.0,7.0,37,0.00,CLR,,0.00,WeatherDisplay:10.37,2013-12-05 01:08:00,
2013-12-04 18:09:00,60.6,34.2,29.84,SSW,197,6.9,6.9,37,0.00,CLR,,0.00,WeatherDisplay:10.37,2013-12-05 01:09:00,
2013-12-04 18:11:00,60.5,34.1,29.84,SSW,205,16.0,16.0,37,0.00,CLR,,0.00,WeatherDisplay:10.37,2013-12-05 01:11:00,
2013-12-04 18:12:00,60.4,34.0,29.84,South,191,11.5,11.5,37,0.00,CLR,,0.00,WeatherDisplay:10.37,2013-12-05 01:12:00,
2013-12-04 18:13:00,60.4,34.7,29.84,West,266,10.3,10.3,38,0.00,CLR,,0.00,WeatherDisplay:10.37,2013-12-05 01:13:00,
2013-12-04 18:14:00,60.4,34.7,29.84,WSW,245,10.3,10.3,38,0.00,CLR,,0.00,WeatherDisplay:10.37,2013-12-05 01:14:00,
2013-12-04 18:16:00,60.3,34.6,29.84,WSW,249,9.2,9.2,38,0.00,CLR,,0.00,WeatherDisplay:10.37,2013-12-05 01:16:00,
2013-12-04 18:17:00,60.2,34.5,29.84,SSW,212,6.0,6.0,38,0.00,CLR,,0.00,WeatherDisplay:10.37,2013-12-05 01:17:00,
2013-12-04 18:18:00,60.2,34.5,29.84,SSW,208,6.0,6.0,38,0.00,CLR,,0.00,WeatherDisplay:10.37,2013-12-05 01:18:00,
2013-12-04 18:19:00,60.1,33.7,29.84,SW,231,17.3,17.3,37,0.00,CLR,,0.00,WeatherDisplay:10.37,2013-12-05 01:19:00,
2013-12-04 18:22:00,60.1,33.7,29.84,SW,236,11.5,11.5,37,0.00,CLR,,0.00,WeatherDisplay:10.37,2013-12-05 01:22:00,
2013-12-04 18:23:00,60.1,33.7,29.84,SSW,198,11.5,11.5,37,0.00,CLR,,0.00,WeatherDisplay:10.37,2013-12-05 01:23:00,
2013-12-04 18:24:00,60.0,33.6,29.84,SW,217,10.0,10.0,37,0.00,CLR,,0.00,WeatherDisplay:10.37,2013-12-05 01:24:00,
2013-12-04 18:27:00,59.9,33.5,29.84,SSW,208,10.3,10.3,37,0.00,CLR,,0.00,WeatherDisplay:10.37,2013-12-05 01:27:00,
2013-12-04 18:28:00,59.9,33.5,29.84,SW,227,9.2,9.2,37,0.00,CLR,,0.00,WeatherDisplay:10.37,2013-12-05 01:28:00,
2013-12-04 18:29:00,59.9,33.5,29.84,WSW,252,11.5,11.5,37,0.00,CLR,,0.00,WeatherDisplay:10.37,2013-12-05 01:29:00,
2013-12-04 18:32:00,59.7,34.0,29.85,ESE,111,10.3,10.3,38,0.00,CLR,,0.00,WeatherDisplay:10.37,2013-12-05 01:32:00,
2013-12-04 18:33:00,59.7,34.0,29.85,South,183,9.0,9.0,38,0.00,CLR,,0.00,WeatherDisplay:10.37,2013-12-05 01:33:00,
2013-12-04 18:34:00,59.7,33.4,29.85,WSW,245,18.4,18.4,37,0.00,CLR,,0.00,WeatherDisplay:10.37,2013-12-05 01:34:00,
2013-12-04 18:35:00,59.6,33.3,29.85,WSW,252,12.0,12.0,37,0.00,CLR,,0.00,WeatherDisplay:10.37,2013-12-05 01:35:00,
2013-12-04 18:37:00,59.6,33.3,29.85,WSW,249,8.1,8.1,37,0.00,CLR,,0.00,WeatherDisplay:10.37,2013-12-05 01:37:00,
2013-12-04 18:38:00,59.6,33.3,29.85,WSW,244,8.1,8.1,37,0.00,CLR,,0.00,WeatherDisplay:10.37,2013-12-05 01:38:00,
2013-12-04 18:39:00,59.5,33.2,29.85,SW,224,5.0,18.0,37,0.00,CLR,,0.00,WeatherDisplay:10.37,2013-12-05 01:39:00,
2013-12-04 18:40:00,59.5,33.2,29.85,WSW,237,9.2,9.2,37,0.00,CLR,,0.00,WeatherDisplay:10.37,2013-12-05 01:40:00,
2013-12-04 18:42:00,59.4,33.1,29.85,WNW,283,8.1,8.1,37,0.00,CLR,,0.00,WeatherDisplay:10.37,2013-12-05 01:42:00,
2013-12-04 18:43:00,59.3,33.0,29.85,SW,231,8.1,8.1,37,0.00,CLR,,0.00,WeatherDisplay:10.37,2013-12-05 01:43:00,
2013-12-04 18:44:00,59.3,33.0,29.85,WSW,252,9.0,9.0,37,0.00,CLR,,0.00,WeatherDisplay:10.37,2013-12-05 01:44:00,
2013-12-04 18:45:00,59.3,33.0,29.85,WSW,249,7.0,7.0,37,0.00,CLR,,0.00,WeatherDisplay:10.37,2013-12-05 01:45:00,
2013-12-04 18:48:00,59.3,33.0,29.85,WSW,245,14.9,14.9,37,0.00,CLR,,0.00,WeatherDisplay:10.37,2013-12-05 01:48:00,
2013-12-04 18:49:00,59.3,33.0,29.85,WSW,253,14.9,14.9,37,0.00,CLR,,0.00,WeatherDisplay:10.37,2013-12-05 01:49:00,
2013-12-04 18:51:00,59.3,33.0,29.85,West,259,11.5,11.5,37,0.00,CLR,,0.00,WeatherDisplay:10.37,2013-12-05 01:51:00,
2013-12-04 18:54:00,59.1,32.8,29.85,WSW,255,8.1,8.1,37,0.00,CLR,,0.00,WeatherDisplay:10.37,2013-12-05 01:54:00,
2013-12-04 18:55:00,59.1,33.5,29.85,West,278,5.8,5.8,38,0.00,CLR,,0.00,WeatherDisplay:10.37,2013-12-05 01:55:00,
2013-12-04 18:56:00,59.1,33.5,29.85,WSW,240,10.3,10.3,38,0.00,CLR,,0.00,WeatherDisplay:10.37,2013-12-05 01:56:00,
2013-12-04 18:59:00,59.1,33.5,29.85,WNW,292,10.3,10.3,38,0.00,CLR,,0.00,WeatherDisplay:10.37,2013-12-05 01:59:00,
2013-12-04 19:00:00,59.0,33.4,29.85,South,177,11.5,11.5,38,0.00,CLR,,0.00,WeatherDisplay:10.37,2013-12-05 02:00:00,
2013-12-04 19:01:00,59.0,33.4,29.85,West,267,10.3,10.3,38,0.00,CLR,,0.00,WeatherDisplay:10.37,2013-12-05 02:01:00,
2013-12-04 19:04:00,58.9,33.3,29.86,WSW,246,6.9,6.9,38,0.00,CLR,,0.00,WeatherDisplay:10.37,2013-12-05 02:04:00,
2013-12-04 19:05:00,58.9,33.3,29.85,WSW,257,10.3,10.3,38,0.00,CLR,,0.00,WeatherDisplay:10.37,2013-12-05 02:05:00,
2013-12-04 19:06:00,58.9,33.3,29.86,WSW,240,8.1,8.1,38,0.00,CLR,,0.00,WeatherDisplay:10.37,2013-12-05 02:06:00,
2013-12-04 19:07:00,58.9,33.3,29.86,WSW,255,8.1,8.1,38,0.00,CLR,,0.00,WeatherDisplay:10.37,2013-12-05 02:07:00,
2013-12-04 19:09:00,58.8,33.3,29.86,WSW,239,6.0,12.0,38,0.00,CLR,,0.00,WeatherDisplay:10.37,2013-12-05 02:09:00,
2013-12-04 19:10:00,58.8,33.9,29.86,WNW,290,6.9,6.9,39,0.00,CLR,,0.00,WeatherDisplay:10.37,2013-12-05 02:10:00,
2013-12-04 19:12:00,58.8,33.9,29.86,SSW,201,5.8,5.8,39,0.00,CLR,,0.00,WeatherDisplay:10.37,2013-12-05 02:12:00,
2013-12-04 19:14:00,58.8,33.9,29.86,WSW,240,11.5,11.5,39,0.00,CLR,,0.00,WeatherDisplay:10.37,2013-12-05 02:14:00,
2013-12-04 19:15:00,58.8,33.9,29.86,SSW,212,11.5,11.5,39,0.00,CLR,,0.00,WeatherDisplay:10.37,2013-12-05 02:15:00,
2013-12-04 19:17:00,58.7,33.8,29.86,WNW,302,11.5,11.5,39,0.00,CLR,,0.00,WeatherDisplay:10.37,2013-12-05 02:17:00,
2013-12-04 19:19:00,58.7,33.8,29.86,WSW,249,11.5,11.5,39,0.00,CLR,,0.00,WeatherDisplay:10.37,2013-12-05 02:19:00,
2013-12-04 19:20:00,58.7,33.8,29.86,SSW,210,8.1,8.1,39,0.00,CLR,,0.00,WeatherDisplay:10.37,2013-12-05 02:20:00,
2013-12-04 19:22:00,58.7,33.8,29.86,South,190,16.1,16.1,39,0.00,CLR,,0.00,WeatherDisplay:10.37,2013-12-05 02:22:00,
2013-12-04 19:24:00,58.7,33.8,29.86,SW,233,11.5,11.5,39,0.00,CLR,,0.00,WeatherDisplay:10.37,2013-12-05 02:24:00,
2013-12-04 19:25:00,58.7,33.8,29.86,SW,226,11.5,11.5,39,0.00,CLR,,0.00,WeatherDisplay:10.37,2013-12-05 02:25:00,
2013-12-04 19:26:00,58.7,33.8,29.87,SSW,211,11.5,11.5,39,0.00,CLR,,0.00,WeatherDisplay:10.37,2013-12-05 02:26:00,
2013-12-04 19:27:00,58.7,33.8,29.87,SW,221,12.0,12.0,39,0.00,CLR,,0.00,WeatherDisplay:10.37,2013-12-05 02:27:00,
2013-12-04 19:29:00,58.7,33.8,29.87,WSW,256,14.9,14.9,39,0.00,CLR,,0.00,WeatherDisplay:10.37,2013-12-05 02:29:00,
2013-12-04 19:30:00,58.7,33.8,29.87,SSE,167,16.1,16.1,39,0.00,CLR,,0.00,WeatherDisplay:10.37,2013-12-05 02:30:00,
2013-12-04 19:31:00,58.7,33.8,29.87,SW,218,13.8,13.8,39,0.00,CLR,,0.00,WeatherDisplay:10.37,2013-12-05 02:31:00,
2013-12-04 19:32:00,58.6,33.7,29.87,SW,215,13.8,13.8,39,0.00,CLR,,0.00,WeatherDisplay:10.37,2013-12-05 02:32:00,
2013-12-04 19:34:00,58.6,33.7,29.87,West,263,10.3,10.3,39,0.00,CLR,,0.00,WeatherDisplay:10.37,2013-12-05 02:34:00,
2013-12-04 19:35:00,58.6,33.7,29.87,South,170,9.0,9.9,39,0.00,CLR,,0.00,WeatherDisplay:10.37,2013-12-05 02:35:00,
2013-12-04 19:36:00,58.6,33.7,29.87,SW,220,17.3,17.3,39,0.00,CLR,,0.00,WeatherDisplay:10.37,2013-12-05 02:36:00,
2013-12-04 19:37:00,58.6,33.7,29.87,WSW,238,11.5,11.5,39,0.00,CLR,,0.00,WeatherDisplay:10.37,2013-12-05 02:37:00,
2013-12-04 19:39:00,58.6,33.7,29.87,SW,216,7.0,18.0,39,0.00,CLR,,0.00,WeatherDisplay:10.37,2013-12-05 02:39:00,
2013-12-04 19:40:00,58.5,33.6,29.87,WSW,238,11.5,11.5,39,0.00,CLR,,0.00,WeatherDisplay:10.37,2013-12-05 02:40:00,
2013-12-04 19:41:00,58.5,33.6,29.87,SW,220,11.5,11.5,39,0.00,CLR,,0.00,WeatherDisplay:10.37,2013-12-05 02:41:00,
2013-12-04 19:42:00,58.4,33.5,29.87,SSW,198,11.5,11.5,39,0.00,CLR,,0.00,WeatherDisplay:10.37,2013-12-05 02:42:00,
2013-12-04 19:44:00,58.4,33.5,29.87,SW,225,10.3,10.3,39,0.00,CLR,,0.00,WeatherDisplay:10.37,2013-12-05 02:44:00,
2013-12-04 19:45:00,58.4,33.5,29.86,WSW,246,10.3,10.3,39,0.00,CLR,,0.00,WeatherDisplay:10.37,2013-12-05 02:45:00,
2013-12-04 19:46:00,58.3,33.4,29.86,WSW,245,11.5,11.5,39,0.00,CLR,,0.00,WeatherDisplay:10.37,2013-12-05 02:46:00,
2013-12-04 19:47:00,58.3,33.4,29.86,West,259,11.5,11.5,39,0.00,CLR,,0.00,WeatherDisplay:10.37,2013-12-05 02:47:00,
2013-12-04 19:49:00,58.2,33.3,29.86,SW,221,9.0,9.0,39,0.00,CLR,,0.00,WeatherDisplay:10.37,2013-12-05 02:49:00,
2013-12-04 19:50:00,58.2,33.3,29.86,SW,235,11.5,11.5,39,0.00,CLR,,0.00,WeatherDisplay:10.37,2013-12-05 02:50:00,
2013-12-04 19:51:00,58.2,33.3,29.86,WSW,238,14.9,14.9,39,0.00,CLR,,0.00,WeatherDisplay:10.37,2013-12-05 02:51:00,
2013-12-04 19:52:00,58.1,33.2,29.86,SW,224,11.5,11.5,39,0.00,CLR,,0.00,WeatherDisplay:10.37,2013-12-05 02:52:00,
2013-12-04 19:54:00,58.0,33.2,29.86,SW,232,10.3,10.3,39,0.00,CLR,,0.00,WeatherDisplay:10.37,2013-12-05 02:54:00,
2013-12-04 19:55:00,57.9,33.7,29.86,West,276,5.8,6.6,40,0.00,CLR,,0.00,WeatherDisplay:10.37,2013-12-05 02:55:00,
2013-12-04 19:56:00,57.9,33.7,29.86,SW,218,14.9,14.9,40,0.00,CLR,,0.00,WeatherDisplay:10.37,2013-12-05 02:56:00,
2013-12-04 19:57:00,57.9,33.7,29.86,WSW,238,6.0,6.0,40,0.00,CLR,,0.00,WeatherDisplay:10.37,2013-12-05 02:57:00,
2013-12-04 19:59:00,57.8,33.6,29.86,SW,235,11.5,11.5,40,0.00,CLR,,0.00,WeatherDisplay:10.37,2013-12-05 02:59:00,
2013-12-04 20:00:00,57.8,33.6,29.86,SSW,204,16.1,16.1,40,0.00,CLR,,0.00,WeatherDisplay:10.37,2013-12-05 03:00:00,
2013-12-04 20:01:00,57.8,33.6,29.86,NW,307,16.1,16.1,40,0.00,CLR,,0.00,WeatherDisplay:10.37,2013-12-05 03:01:00,
2013-12-04 20:02:00,57.8,33.6,29.86,West,266,10.3,10.3,40,0.00,CLR,,0.00,WeatherDisplay:10.37,2013-12-05 03:02:00,
2013-12-04 20:04:00,57.7,33.5,29.86,WSW,242,11.0,11.0,40,0.00,CLR,,0.00,WeatherDisplay:10.37,2013-12-05 03:04:00,
2013-12-04 20:05:00,57.7,33.5,29.86,WSW,243,11.5,11.5,40,0.00,CLR,,0.00,WeatherDisplay:10.37,2013-12-05 03:05:00,
2013-12-04 20:06:00,57.7,33.5,29.86,SW,222,11.5,11.5,40,0.00,CLR,,0.00,WeatherDisplay:10.37,2013-12-05 03:06:00,
2013-12-04 20:07:00,57.6,34.1,29.86,West,259,11.5,11.5,41,0.00,CLR,,0.00,WeatherDisplay:10.37,2013-12-05 03:07:00,
2013-12-04 20:09:00,57.5,34.0,29.86,SW,226,9.2,9.2,41,0.00,CLR,,0.00,WeatherDisplay:10.37,2013-12-05 03:09:00,
2013-12-04 20:11:00,57.5,34.0,29.87,SW,235,13.8,13.8,41,0.00,CLR,,0.00,WeatherDisplay:10.37,2013-12-05 03:11:00,
2013-12-04 20:12:00,57.5,34.0,29.87,SW,215,13.8,13.8,41,0.00,CLR,,0.00,WeatherDisplay:10.37,2013-12-05 03:12:00,
2013-12-04 20:14:00,57.4,33.9,29.87,West,273,9.2,9.2,41,0.00,CLR,,0.00,WeatherDisplay:10.37,2013-12-05 03:14:00,
2013-12-04 20:16:00,57.3,33.8,29.86,SSW,211,7.0,7.0,41,0.00,CLR,,0.00,WeatherDisplay:10.37,2013-12-05 03:16:00,
2013-12-04 20:17:00,57.3,33.8,29.86,WSW,252,7.0,7.0,41,0.00,CLR,,0.00,WeatherDisplay:10.37,2013-12-05 03:17:00,
2013-12-04 20:18:00,57.3,33.8,29.86,SW,220,11.5,11.5,41,0.00,CLR,,0.00,WeatherDisplay:10.37,2013-12-05 03:18:00,
2013-12-04 20:20:00,57.2,34.3,29.86,SW,231,6.9,6.9,42,0.00,CLR,,0.00,WeatherDisplay:10.37,2013-12-05 03:20:00,
2013-12-04 20:22:00,57.2,34.3,29.87,SW,232,13.8,13.8,42,0.00,CLR,,0.00,WeatherDisplay:10.37,2013-12-05 03:22:00,
2013-12-04 20:23:00,57.1,34.2,29.87,SW,218,6.9,6.9,42,0.00,CLR,,0.00,WeatherDisplay:10.37,2013-12-05 03:23:00,
2013-12-04 20:25:00,57.0,34.1,29.87,WSW,243,10.3,10.3,42,0.00,CLR,,0.00,WeatherDisplay:10.37,2013-12-05 03:25:00,
2013-12-04 20:27:00,57.0,34.1,29.87,SW,232,5.8,5.8,42,0.00,CLR,,0.00,WeatherDisplay:10.37,2013-12-05 03:27:00,
2013-12-04 20:28:00,56.9,34.0,29.87,SSW,200,8.1,8.1,42,0.00,CLR,,0.00,WeatherDisplay:10.37,2013-12-05 03:28:00,
2013-12-04 20:30:00,56.9,34.6,29.87,SW,232,9.2,9.2,43,0.00,CLR,,0.00,WeatherDisplay:10.37,2013-12-05 03:30:00,
2013-12-04 20:32:00,56.8,34.5,29.87,SSW,209,14.9,14.9,43,0.00,CLR,,0.00,WeatherDisplay:10.37,2013-12-05 03:32:00,
2013-12-04 20:33:00,56.8,34.5,29.87,SW,224,11.5,11.5,43,0.00,CLR,,0.00,WeatherDisplay:10.37,2013-12-05 03:33:00,
2013-12-04 20:35:00,56.8,34.5,29.87,West,274,10.3,10.3,43,0.00,CLR,,0.00,WeatherDisplay:10.37,2013-12-05 03:35:00,
2013-12-04 20:37:00,56.8,35.1,29.87,SSW,194,10.3,10.3,44,0.00,CLR,,0.00,WeatherDisplay:10.37,2013-12-05 03:37:00,
2013-12-04 20:38:00,56.8,35.1,29.88,WNW,283,16.1,16.1,44,0.00,CLR,,0.00,WeatherDisplay:10.37,2013-12-05 03:38:00,
2013-12-04 20:40:00,56.8,35.1,29.88,West,267,11.5,11.5,44,0.00,CLR,,0.00,WeatherDisplay:10.37,2013-12-05 03:40:00,
2013-12-04 20:41:00,56.8,35.1,29.88,SSW,212,11.0,11.0,44,0.00,CLR,,0.00,WeatherDisplay:10.37,2013-12-05 03:41:00,
2013-12-04 20:42:00,56.7,35.0,29.88,SW,236,11.5,11.5,44,0.00,CLR,,0.00,WeatherDisplay:10.37,2013-12-05 03:42:00,
2013-12-04 20:43:00,56.7,35.0,29.88,SW,218,11.5,11.5,44,0.00,CLR,,0.00,WeatherDisplay:10.37,2013-12-05 03:43:00,
2013-12-04 20:44:00,56.7,35.0,29.88,WSW,242,7.0,7.0,44,0.00,CLR,,0.00,WeatherDisplay:10.37,2013-12-05 03:44:00,
2013-12-04 20:45:00,56.7,35.0,29.88,South,186,11.5,11.5,44,0.00,CLR,,0.00,WeatherDisplay:10.37,2013-12-05 03:45:00,
2013-12-04 20:46:00,56.7,35.6,29.88,SW,220,11.5,11.5,45,0.00,CLR,,0.00,WeatherDisplay:10.37,2013-12-05 03:46:00,
2013-12-04 20:47:00,56.7,35.6,29.88,WSW,254,11.5,11.5,45,0.00,CLR,,0.00,WeatherDisplay:10.37,2013-12-05 03:47:00,
2013-12-04 20:48:00,56.7,35.6,29.88,SW,226,9.2,9.2,45,0.00,CLR,,0.00,WeatherDisplay:10.37,2013-12-05 03:48:00,
2013-12-04 20:49:00,56.8,35.7,29.88,SW,225,11.5,11.5,45,0.00,CLR,,0.00,WeatherDisplay:10.37,2013-12-05 03:49:00,
2013-12-04 20:50:00,56.8,35.7,29.88,WSW,237,11.5,11.5,45,0.00,CLR,,0.00,WeatherDisplay:10.37,2013-12-05 03:50:00,
2013-12-04 20:51:00,56.8,35.7,29.88,West,259,11.5,11.5,45,0.00,CLR,,0.00,WeatherDisplay:10.37,2013-12-05 03:51:00,
2013-12-04 20:52:00,56.8,35.7,29.88,South,169,11.5,11.5,45,0.00,CLR,,0.00,WeatherDisplay:10.37,2013-12-05 03:52:00,
2013-12-04 20:53:00,56.8,35.7,29.88,SSW,201,11.5,11.5,45,0.00,CLR,,0.00,WeatherDisplay:10.37,2013-12-05 03:53:00,
2013-12-04 20:54:00,56.8,35.7,29.89,WSW,252,9.2,9.2,45,0.00,CLR,,0.00,WeatherDisplay:10.37,2013-12-05 03:54:00,
2013-12-04 20:55:00,56.8,35.7,29.88,SW,226,13.8,13.8,45,0.00,CLR,,0.00,WeatherDisplay:10.37,2013-12-05 03:55:00,
2013-12-04 20:56:00,56.8,35.7,29.88,SW,224,11.5,11.5,45,0.00,CLR,,0.00,WeatherDisplay:10.37,2013-12-05 03:56:00,
2013-12-04 20:57:00,56.8,36.2,29.88,WSW,249,10.3,10.3,46,0.00,CLR,,0.00,WeatherDisplay:10.37,2013-12-05 03:57:00,
2013-12-04 20:58:00,56.8,36.2,29.88,SW,218,4.6,4.6,46,0.00,CLR,,0.00,WeatherDisplay:10.37,2013-12-05 03:58:00,
2013-12-04 20:59:00,56.8,36.2,29.88,WSW,254,5.0,5.0,46,0.00,CLR,,0.00,WeatherDisplay:10.37,2013-12-05 03:59:00,
2013-12-04 21:01:00,56.7,36.1,29.88,WSW,250,6.9,6.9,46,0.00,CLR,,0.00,WeatherDisplay:10.37,2013-12-05 04:01:00,
2013-12-04 21:02:00,56.7,36.1,29.88,SSW,205,8.1,8.1,46,0.00,CLR,,0.00,WeatherDisplay:10.37,2013-12-05 04:02:00,
2013-12-04 21:04:00,56.7,36.7,29.88,West,268,11.5,11.5,47,0.00,CLR,,0.00,WeatherDisplay:10.37,2013-12-05 04:04:00,
2013-12-04 21:06:00,56.7,36.7,29.88,WSW,257,5.8,5.8,47,0.00,CLR,,0.00,WeatherDisplay:10.37,2013-12-05 04:06:00,
2013-12-04 21:08:00,56.6,36.6,29.88,WSW,256,9.2,9.2,47,0.00,CLR,,0.00,WeatherDisplay:10.37,2013-12-05 04:08:00,
2013-12-04 21:09:00,56.6,36.6,29.88,South,176,5.0,5.0,47,0.00,CLR,,0.00,WeatherDisplay:10.37,2013-12-05 04:09:00,
2013-12-04 21:12:00,56.5,37.0,29.88,SW,220,3.4,3.9,48,0.00,CLR,,0.00,WeatherDisplay:10.37,2013-12-05 04:12:00,
2013-12-04 21:13:00,56.5,37.0,29.88,West,264,6.9,6.9,48,0.00,CLR,,0.00,WeatherDisplay:10.37,2013-12-05 04:13:00,
2013-12-04 21:14:00,56.5,37.0,29.88,WNW,285,11.5,11.5,48,0.00,CLR,,0.00,WeatherDisplay:10.37,2013-12-05 04:14:00,
2013-12-04 21:15:00,56.4,36.9,29.88,West,263,4.6,4.6,48,0.00,CLR,,0.00,WeatherDisplay:10.37,2013-12-05 04:15:00,
2013-12-04 21:18:00,56.4,37.5,29.88,WSW,242,10.3,10.3,49,0.00,CLR,,0.00,WeatherDisplay:10.37,2013-12-05 04:18:00,
2013-12-04 21:19:00,56.4,37.5,29.88,SSW,208,10.3,10.3,49,0.00,CLR,,0.00,WeatherDisplay:10.37,2013-12-05 04:19:00,
2013-12-04 21:20:00,56.4,37.5,29.88,West,260,4.6,4.6,49,0.00,CLR,,0.00,WeatherDisplay:10.37,2013-12-05 04:20:00,
2013-12-04 21:23:00,56.2,37.3,29.88,SSW,207,5.8,5.8,49,0.00,CLR,,0.00,WeatherDisplay:10.37,2013-12-05 04:23:00,
2013-12-04 21:24:00,56.2,37.3,29.88,SW,224,3.4,3.4,49,0.00,CLR,,0.00,WeatherDisplay:10.37,2013-12-05 04:24:00,
2013-12-04 21:26:00,56.2,37.3,29.88,NW,305,4.6,4.6,49,0.00,CLR,,0.00,WeatherDisplay:10.37,2013-12-05 04:26:00,
2013-12-04 21:28:00,56.1,37.7,29.88,SW,231,8.1,8.1,50,0.00,CLR,,0.00,WeatherDisplay:10.37,2013-12-05 04:28:00,
2013-12-04 21:29:00,56.1,37.7,29.88,WNW,285,5.8,5.8,50,0.00,CLR,,0.00,WeatherDisplay:10.37,2013-12-05 04:29:00,
2013-12-04 21:30:00,56.1,37.7,29.88,South,189,6.0,6.0,50,0.00,CLR,,0.00,WeatherDisplay:10.37,2013-12-05 04:30:00,
2013-12-04 21:31:00,56.1,37.7,29.88,SW,215,9.2,9.2,50,0.00,CLR,,0.00,WeatherDisplay:10.37,2013-12-05 04:31:00,
2013-12-04 21:33:00,56.1,37.7,29.88,WSW,249,6.9,6.9,50,0.00,CLR,,0.00,WeatherDisplay:10.37,2013-12-05 04:33:00,
2013-12-04 21:34:00,56.1,37.7,29.89,WNW,287,6.9,6.9,50,0.00,CLR,,0.00,WeatherDisplay:10.37,2013-12-05 04:34:00,
2013-12-04 21:35:00,56.1,37.7,29.89,WNW,285,3.4,3.4,50,0.00,CLR,,0.00,WeatherDisplay:10.37,2013-12-05 04:35:00,
2013-12-04 21:36:00,56.1,37.7,29.89,WSW,245,4.0,4.0,50,0.00,CLR,,0.00,WeatherDisplay:10.37,2013-12-05 04:36:00,
2013-12-04 21:39:00,56.1,37.7,29.89,West,267,6.9,6.9,50,0.00,CLR,,0.00,WeatherDisplay:10.37,2013-12-05 04:39:00,
2013-12-04 21:40:00,56.2,37.8,29.89,West,278,6.9,6.9,50,0.00,CLR,,0.00,WeatherDisplay:10.37,2013-12-05 04:40:00,
2013-12-04 21:41:00,56.2,37.8,29.89,WNW,288,8.1,8.1,50,0.00,CLR,,0.00,WeatherDisplay:10.37,2013-12-05 04:41:00,
2013-12-04 21:42:00,56.1,37.7,29.89,SSW,212,8.1,8.1,50,0.00,CLR,,0.00,WeatherDisplay:10.37,2013-12-05 04:42:00,
2013-12-04 21:44:00,56.1,37.7,29.89,WSW,240,4.0,4.0,50,0.00,CLR,,0.00,WeatherDisplay:10.37,2013-12-05 04:44:00,
2013-12-04 21:45:00,56.1,38.2,29.89,West,262,11.0,11.0,51,0.00,CLR,,0.00,WeatherDisplay:10.37,2013-12-05 04:45:00,
2013-12-04 21:46:00,56.1,38.2,29.89,SSW,198,6.9,6.9,51,0.00,CLR,,0.00,WeatherDisplay:10.37,2013-12-05 04:46:00,
2013-12-04 21:48:00,56.1,38.2,29.89,WSW,249,11.5,11.5,51,0.00,CLR,,0.00,WeatherDisplay:10.37,2013-12-05 04:48:00,
2013-12-04 21:49:00,56.1,38.2,29.89,SSW,202,4.6,4.6,51,0.00,CLR,,0.00,WeatherDisplay:10.37,2013-12-05 04:49:00,
2013-12-04 21:50:00,56.1,38.2,29.89,SW,231,4.6,4.6,51,0.00,CLR,,0.00,WeatherDisplay:10.37,2013-12-05 04:50:00,
2013-12-04 21:51:00,56.1,38.2,29.89,WSW,242,7.0,7.0,51,0.00,CLR,,0.00,WeatherDisplay:10.37,2013-12-05 04:51:00,
2013-12-04 21:52:00,56.1,38.2,29.89,SW,236,6.9,6.9,51,0.00,CLR,,0.00,WeatherDisplay:10.37,2013-12-05 04:52:00,
2013-12-04 21:53:00,56.1,38.2,29.89,SW,228,11.5,11.5,51,0.00,CLR,,0.00,WeatherDisplay:10.37,2013-12-05 04:53:00,
2013-12-04 21:54:00,56.1,38.2,29.89,SE,141,10.3,10.3,51,0.00,CLR,,0.00,WeatherDisplay:10.37,2013-12-05 04:54:00,
2013-12-04 21:55:00,56.1,38.2,29.89,SE,142,3.4,3.4,51,0.00,CLR,,0.00,WeatherDisplay:10.37,2013-12-05 04:55:00,
2013-12-04 21:56:00,56.1,38.2,29.89,SW,227,3.4,3.4,51,0.00,CLR,,0.00,WeatherDisplay:10.37,2013-12-05 04:56:00,
2013-12-04 21:57:00,56.0,38.1,29.88,SW,232,4.6,4.6,51,0.00,CLR,,0.00,WeatherDisplay:10.37,2013-12-05 04:57:00,
2013-12-04 21:59:00,55.9,38.0,29.89,West,264,3.4,3.4,51,0.00,CLR,,0.00,WeatherDisplay:10.37,2013-12-05 04:59:00,
2013-12-04 22:00:00,55.9,38.0,29.89,SE,146,3.4,3.4,51,0.00,CLR,,0.00,WeatherDisplay:10.37,2013-12-05 05:00:00,
2013-12-04 22:01:00,55.9,38.0,29.89,SW,236,3.4,3.4,51,0.00,CLR,,0.00,WeatherDisplay:10.37,2013-12-05 05:01:00,
2013-12-04 22:06:00,55.7,37.8,29.89,WSW,239,5.8,5.8,51,0.00,CLR,,0.00,WeatherDisplay:10.37,2013-12-05 05:06:00,
2013-12-04 22:07:00,55.7,37.8,29.89,SW,233,4.6,4.6,51,0.00,CLR,,0.00,WeatherDisplay:10.37,2013-12-05 05:07:00,
2013-12-04 22:11:00,55.5,37.7,29.89,SSW,208,3.4,3.4,51,0.00,CLR,,0.00,WeatherDisplay:10.37,2013-12-05 05:11:00,
2013-12-04 22:12:00,55.5,37.7,29.89,South,189,6.9,6.9,51,0.00,CLR,,0.00,WeatherDisplay:10.37,2013-12-05 05:12:00,
2013-12-04 22:16:00,55.4,37.1,29.89,SW,229,5.8,5.8,50,0.00,CLR,,0.00,WeatherDisplay:10.37,2013-12-05 05:16:00,
2013-12-04 22:17:00,55.5,37.7,29.89,WSW,245,5.8,5.8,51,0.00,CLR,,0.00,WeatherDisplay:10.37,2013-12-05 05:17:00,
2013-12-04 22:18:00,55.4,37.1,29.89,West,281,4.0,4.0,50,0.00,CLR,,0.00,WeatherDisplay:10.37,2013-12-05 05:18:00,
2013-12-04 22:21:00,55.4,37.1,29.89,SW,236,5.8,5.8,50,0.00,CLR,,0.00,WeatherDisplay:10.37,2013-12-05 05:21:00,
2013-12-04 22:22:00,55.4,37.1,29.89,WNW,288,5.8,5.8,50,0.00,CLR,,0.00,WeatherDisplay:10.37,2013-12-05 05:22:00,
2013-12-04 22:23:00,55.4,37.1,29.89,SW,228,3.4,3.4,50,0.00,CLR,,0.00,WeatherDisplay:10.37,2013-12-05 05:23:00,
2013-12-04 22:27:00,55.3,37.0,29.90,WSW,239,3.4,3.4,50,0.00,CLR,,0.00,WeatherDisplay:10.37,2013-12-05 05:27:00,
2013-12-04 22:28:00,55.3,37.0,29.90,WSW,238,3.4,3.4,50,0.00,CLR,,0.00,WeatherDisplay:10.37,2013-12-05 05:28:00,
2013-12-04 22:32:00,55.2,36.9,29.90,SW,232,1.1,1.1,50,0.00,CLR,,0.00,WeatherDisplay:10.37,2013-12-05 05:32:00,
2013-12-04 22:33:00,55.1,36.8,29.90,West,259,2.3,2.3,50,0.00,CLR,,0.00,WeatherDisplay:10.37,2013-12-05 05:33:00,
2013-12-04 22:34:00,55.1,36.8,29.90,SSE,167,1.1,1.1,50,0.00,CLR,,0.00,WeatherDisplay:10.37,2013-12-05 05:34:00,
2013-12-04 22:37:00,55.0,36.7,29.90,WNW,285,3.4,3.4,50,0.00,CLR,,0.00,WeatherDisplay:10.37,2013-12-05 05:37:00,
2013-12-04 22:38:00,54.9,36.6,29.90,West,266,2.3,2.3,50,0.00,CLR,,0.00,WeatherDisplay:10.37,2013-12-05 05:38:00,
2013-12-04 22:39:00,55.0,36.7,29.90,WSW,242,3.4,3.4,50,0.00,CLR,,0.00,WeatherDisplay:10.37,2013-12-05 05:39:00,
2013-12-04 22:40:00,55.0,36.7,29.90,West,266,3.4,3.4,50,0.00,CLR,,0.00,WeatherDisplay:10.37,2013-12-05 05:40:00,
2013-12-04 22:42:00,55.0,36.7,29.90,West,276,3.4,3.4,50,0.00,CLR,,0.00,WeatherDisplay:10.37,2013-12-05 05:42:00,
2013-12-04 22:43:00,55.0,36.7,29.90,WNW,287,3.4,3.4,50,0.00,CLR,,0.00,WeatherDisplay:10.37,2013-12-05 05:43:00,
2013-12-04 22:44:00,55.0,36.7,29.90,West,266,3.4,3.4,50,0.00,CLR,,0.00,WeatherDisplay:10.37,2013-12-05 05:44:00,
2013-12-04 22:45:00,55.1,36.8,29.90,West,261,3.4,3.4,50,0.00,CLR,,0.00,WeatherDisplay:10.37,2013-12-05 05:45:00,
2013-12-04 22:47:00,55.0,36.7,29.90,WNW,283,4.6,4.6,50,0.00,CLR,,0.00,WeatherDisplay:10.37,2013-12-05 05:47:00,
2013-12-04 22:48:00,55.0,36.7,29.90,WNW,288,4.6,4.6,50,0.00,CLR,,0.00,WeatherDisplay:10.37,2013-12-05 05:48:00,
2013-12-04 22:49:00,55.0,36.7,29.90,WNW,294,5.0,5.0,50,0.00,CLR,,0.00,WeatherDisplay:10.37,2013-12-05 05:49:00,
2013-12-04 22:50:00,55.0,36.7,29.90,WNW,295,6.9,6.9,50,0.00,CLR,,0.00,WeatherDisplay:10.37,2013-12-05 05:50:00,
2013-12-04 22:52:00,55.0,36.7,29.90,WNW,290,3.4,3.4,50,0.00,CLR,,0.00,WeatherDisplay:10.37,2013-12-05 05:52:00,
2013-12-04 22:53:00,55.0,36.7,29.90,West,266,4.6,4.6,50,0.00,CLR,,0.00,WeatherDisplay:10.37,2013-12-05 05:53:00,
2013-12-04 22:55:00,54.9,36.6,29.90,West,276,2.3,2.3,50,0.00,CLR,,0.00,WeatherDisplay:10.37,2013-12-05 05:55:00,
2013-12-04 22:57:00,54.9,36.6,29.89,WSW,238,3.4,3.4,50,0.00,CLR,,0.00,WeatherDisplay:10.37,2013-12-05 05:57:00,
2013-12-04 22:58:00,54.8,36.5,29.89,NNE,15,3.4,3.4,50,0.00,CLR,,0.00,WeatherDisplay:10.37,2013-12-05 05:58:00,
2013-12-04 22:59:00,54.8,36.5,29.89,NW,318,3.4,3.4,50,0.00,CLR,,0.00,WeatherDisplay:10.37,2013-12-05 05:59:00,
2013-12-04 23:00:00,54.8,36.5,29.89,NW,312,7.0,7.0,50,0.00,CLR,,0.00,WeatherDisplay:10.37,2013-12-05 06:00:00,
2013-12-04 23:02:00,54.8,36.5,29.89,West,270,2.3,2.3,50,0.00,CLR,,0.00,WeatherDisplay:10.37,2013-12-05 06:02:00,
2013-12-04 23:03:00,54.8,36.5,29.89,West,266,2.3,2.3,50,0.00,CLR,,0.00,WeatherDisplay:10.37,2013-12-05 06:03:00,
2013-12-04 23:04:00,54.8,36.5,29.89,WNW,293,3.0,3.0,50,0.00,CLR,,0.00,WeatherDisplay:10.37,2013-12-05 06:04:00,
2013-12-04 23:05:00,54.7,36.4,29.89,West,266,3.4,3.4,50,0.00,CLR,,0.00,WeatherDisplay:10.37,2013-12-05 06:05:00,
2013-12-04 23:08:00,54.6,36.3,29.89,NW,305,2.3,2.3,50,0.00,CLR,,0.00,WeatherDisplay:10.37,2013-12-05 06:08:00,
2013-12-04 23:09:00,54.6,36.3,29.89,WSW,244,2.3,2.3,50,0.00,CLR,,0.00,WeatherDisplay:10.37,2013-12-05 06:09:00,
2013-12-04 23:10:00,54.5,36.2,29.89,WNW,302,3.4,3.4,50,0.00,CLR,,0.00,WeatherDisplay:10.37,2013-12-05 06:10:00,
2013-12-04 23:11:00,54.5,36.2,29.89,NW,317,2.3,2.3,50,0.00,CLR,,0.00,WeatherDisplay:10.37,2013-12-05 06:11:00,
2013-12-04 23:13:00,54.5,36.7,29.89,WNW,295,4.6,4.6,51,0.00,CLR,,0.00,WeatherDisplay:10.37,2013-12-05 06:13:00,
2013-12-04 23:14:00,54.4,36.6,29.89,WSW,240,2.3,2.3,51,0.00,CLR,,0.00,WeatherDisplay:10.37,2013-12-05 06:14:00,
2013-12-04 23:15:00,54.4,36.6,29.89,WNW,285,1.1,1.1,51,0.00,CLR,,0.00,WeatherDisplay:10.37,2013-12-05 06:15:00,
2013-12-04 23:16:00,54.4,36.6,29.89,WNW,285,1.1,1.1,51,0.00,CLR,,0.00,WeatherDisplay:10.37,2013-12-05 06:16:00,
2013-12-04 23:18:00,54.3,36.5,29.89,WNW,302,5.8,5.8,51,0.00,CLR,,0.00,WeatherDisplay:10.37,2013-12-05 06:18:00,
2013-12-04 23:20:00,54.2,36.5,29.89,NW,309,5.8,5.8,51,0.00,CLR,,0.00,WeatherDisplay:10.37,2013-12-05 06:20:00,
2013-12-04 23:21:00,54.2,36.5,29.89,NW,312,5.0,5.0,51,0.00,CLR,,0.00,WeatherDisplay:10.37,2013-12-05 06:21:00,
2013-12-04 23:23:00,54.2,36.5,29.89,West,259,3.4,3.4,51,0.00,CLR,,0.00,WeatherDisplay:10.37,2013-12-05 06:23:00,
2013-12-04 23:25:00,54.2,36.9,29.89,WSW,248,3.0,3.0,52,0.00,CLR,,0.00,WeatherDisplay:10.37,2013-12-05 06:25:00,
2013-12-04 23:26:00,54.2,36.9,29.89,WSW,257,3.4,3.4,52,0.00,CLR,,0.00,WeatherDisplay:10.37,2013-12-05 06:26:00,
2013-12-04 23:28:00,54.2,36.9,29.88,West,278,4.0,4.0,52,0.00,CLR,,0.00,WeatherDisplay:10.37,2013-12-05 06:28:00,
2013-12-04 23:29:00,54.2,36.9,29.88,SW,216,3.4,3.4,52,0.00,CLR,,0.00,WeatherDisplay:10.37,2013-12-05 06:29:00,
2013-12-04 23:31:00,54.3,37.0,29.88,West,274,4.0,4.0,52,0.00,CLR,,0.00,WeatherDisplay:10.37,2013-12-05 06:31:00,
2013-12-04 23:32:00,54.3,37.0,29.88,WNW,302,4.0,4.0,52,0.00,CLR,,0.00,WeatherDisplay:10.37,2013-12-05 06:32:00,
2013-12-04 23:33:00,54.4,37.1,29.88,West,280,4.6,4.6,52,0.00,CLR,,0.00,WeatherDisplay:10.37,2013-12-05 06:33:00,
2013-12-04 23:34:00,54.4,37.1,29.88,NW,307,7.0,7.0,52,0.00,CLR,,0.00,WeatherDisplay:10.37,2013-12-05 06:34:00,
2013-12-04 23:36:00,54.4,37.1,29.88,NW,314,4.6,4.6,52,0.00,CLR,,0.00,WeatherDisplay:10.37,2013-12-05 06:36:00,
2013-12-04 23:37:00,54.4,37.1,29.88,WNW,295,4.6,4.6,52,0.00,CLR,,0.00,WeatherDisplay:10.37,2013-12-05 06:37:00,
2013-12-04 23:38:00,54.4,37.1,29.88,West,276,3.4,3.4,52,0.00,CLR,,0.00,WeatherDisplay:10.37,2013-12-05 06:38:00,
2013-12-04 23:40:00,54.3,37.0,29.88,West,276,4.0,4.0,52,0.00,CLR,,0.00,WeatherDisplay:10.37,2013-12-05 06:40:00,
2013-12-04 23:42:00,54.3,37.5,29.88,West,280,3.4,3.4,53,0.00,CLR,,0.00,WeatherDisplay:10.37,2013-12-05 06:42:00,
2013-12-04 23:43:00,54.3,37.5,29.88,WNW,290,5.0,5.0,53,0.00,CLR,,0.00,WeatherDisplay:10.37,2013-12-05 06:43:00,
2013-12-04 23:45:00,54.4,37.6,29.88,WNW,286,7.0,7.0,53,0.00,CLR,,0.00,WeatherDisplay:10.37,2013-12-05 06:45:00,
2013-12-04 23:47:00,54.5,37.7,29.88,West,276,4.6,4.6,53,0.00,CLR,,0.00,WeatherDisplay:10.37,2013-12-05 06:47:00,
2013-12-04 23:48:00,54.4,37.6,29.88,West,281,4.0,4.0,53,0.00,CLR,,0.00,WeatherDisplay:10.37,2013-12-05 06:48:00,
2013-12-04 23:51:00,54.4,37.6,29.88,West,267,4.6,4.6,53,0.00,CLR,,0.00,WeatherDisplay:10.37,2013-12-05 06:51:00,
2013-12-04 23:52:00,54.4,37.6,29.88,NW,311,3.4,3.4,53,0.00,CLR,,0.00,WeatherDisplay:10.37,2013-12-05 06:52:00,
2013-12-04 23:53:00,54.4,37.6,29.87,WNW,288,2.3,2.3,53,0.00,CLR,,0.00,WeatherDisplay:10.37,2013-12-05 06:53:00,
2013-12-04 23:54:00,54.3,37.5,29.88,WNW,300,2.3,2.3,53,0.00,CLR,,0.00,WeatherDisplay:10.37,2013-12-05 06:54:00,
2013-12-04 23:56:00,54.3,38.0,29.87,NW,323,3.4,3.4,54,0.00,CLR,,0.00,WeatherDisplay:10.37,2013-12-05 06:56:00,
2013-12-04 23:57:00,54.2,37.9,29.87,WNW,299,3.4,3.4,54,0.00,CLR,,0.00,WeatherDisplay:10.37,2013-12-05 06:57:00,
2013-12-04 23:58:00,54.2,37.9,29.87,WNW,285,2.3,2.3,54,0.00,CLR,,0.00,WeatherDisplay:10.37,2013-12-05 06:58:00,
2013-12-04 23:59:00,54.1,37.8,29.87,NW,316,2.3,2.3,54,0.00,CLR,,0.00,WeatherDisplay:10.37,2013-12-05 06:59:00,